GFSMW_2pvu_pres_000.txt.gz
Presure
184 158 190 179 172 163 171 140 141 156 151 154 161 154 157 154 167 100 166 161 163 157 152 163 149 133 138 157 158 170 142 173 167 154 163 153 174 185 169 163 163 154 144
170 145 188 171 174 148 173 172 143 136 136 150 134 146 102 96 99 118 171 168 107 161 128 139 136 169 132 143 152 171 153 156 162 185 159 180 165 170 166 165 164 161 187
135 135 170 169 166 161 148 157 147 168 159 158 102 101 101 134 108 149 170 165 160 162 133 154 174 164 169 134 176 171 172 145 150 158 167 173 170 161 151 149 169 183 184
142 161 152 170 167 125 125 127 137 156 170 97 100 102 104 96 168 158 170 165 153 142 143 157 160 149 146 169 159 174 168 155 151 149 179 176 174 168 157 186 179 171 167
190 186 120 109 166 123 149 151 164 173 102 105 102 103 93 174 160 175 162 164 169 174 184 167 166 166 131 157 165 153 155 168 179 181 166 170 172 181 190 179 172 186 172
162 119 156 110 109 147 120 155 127 95 101 103 161 118 178 158 168 151 175 176 174 158 165 141 133 165 143 167 178 175 175 177 174 179 176 189 186 174 186 180 161 142 190
163 140 164 142 156 160 117 148 158 164 153 176 174 169 166 153 159 170 176 163 104 150 151 172 177 170 178 161 169 170 172 185 191 154 184 188 190 195 147 177 160 129 164
195 198 165 129 153 159 169 165 164 155 178 173 171 171 167 172 173 153 176 178 175 179 178 157 162 171 183 163 172 192 184 158 185 128 192 136 154 198 202 145 127 132 135
184 186 188 204 126 139 133 156 151 161 169 152 166 171 170 167 175 183 182 178 162 159 171 186 164 165 190 182 181 185 157 179 142 209 138 144 142 203 172 182 156 154 191
181 100 186 125 137 147 161 113 159 166 166 174 169 172 184 186 184 160 156 164 184 179 171 172 184 184 192 104 127 137 140 207 124 126 139 159 175 152 173 163 127 255 161
179 183 124 181 189 198 200 182 162 169 170 125 163 157 155 176 161 170 191 176 177 172 185 192 189 133 148 182 169 118 162 126 165 166 163 144 152 167 248 254 158 163 172
197 186 185 182 184 198 168 198 198 159 151 179 129 176 170 167 193 168 171 188 191 191 128 136 124 125 134 100 171 190 143 160 132 133 215 138 210 145 150 158 168 411 407
129 181 173 176 180 185 193 200 203 150 181 193 192 172 187 162 172 176 181 190 125 129 132 185 164 162 195 224 153 201 210 205 236 263 165 159 263 354 416 408 406 406 406
188 196 197 188 185 195 188 167 182 197 151 178 199 185 183 183 182 193 175 122 159 157 204 179 169 188 182 194 147 153 203 255 238 246 442 426 419 409 399 394 392 392 328
172 167 174 175 176 167 181 191 182 176 181 201 197 183 177 195 153 169 159 198 186 148 138 144 135 214 205 225 219 143 230 234 399 440 434 421 408 394 391 390 386 385 389
166 196 191 171 140 193 204 195 185 167 190 200 200 126 144 172 98 115 157 205 138 214 211 144 170 187 251 231 235 232 445 436 426 417 406 395 394 391 385 382 385 389 388
185 151 184 191 198 198 201 179 194 192 177 127 152 187 142 182 137 143 153 149 141 174 212 190 208 216 293 245 421 436 428 332 400 390 385 383 378 378 331 380 382 384 378
195 199 134 176 192 203 197 205 133 102 190 180 154 131 156 156 136 173 160 205 212 212 216 216 221 264 308 438 430 418 402 386 378 376 377 381 194 379 380 385 385 377 368
169 156 215 176 213 203 198 212 182 179 195 132 183 224 138 200 210 208 218 226 217 229 201 241 274 405 436 429 410 397 390 383 497 478 438 393 344 520 514 519 522 525 525
219 222 192 203 200 198 164 213 209 133 209 126 129 138 198 204 214 231 222 201 204 228 235 236 309 318 427 408 391 387 522 445 423 389 349 337 481 494 491 493 496 502 500
211 211 212 211 210 215 204 203 125 157 143 162 170 210 198 114 186 199 235 250 264 274 320 319 429 426 409 390 382 448 428 402 398 389 402 441 448 454 460 463 470 477 481
212 205 183 205 198 176 127 136 193 222 191 181 195 178 155 156 173 208 208 219 235 287 298 433 424 417 388 379 379 427 402 377 378 377 395 416 420 427 430 439 447 454 448
205 209 214 239 122 123 149 209 145 198 192 198 201 162 115 197 192 238 220 267 295 295 431 423 424 395 377 373 439 416 386 356 376 370 376 398 404 409 415 427 436 441 351
153 125 124 127 157 196 218 145 167 202 186 179 181 114 192 222 202 213 266 296 284 410 416 420 407 382 374 395 417 415 389 381 373 364 366 381 394 404 416 425 420 340 337
138 124 139 220 212 196 150 177 190 180 182 200 148 210 231 235 244 259 288 271 369 412 414 411 391 376 375 436 393 412 405 382 371 369 363 375 388 403 416 365 339 334 329
118 186 195 187 202 164 201 178 189 190 222 198 199 205 227 234 260 283 292 352 355 356 400 389 369 371 374 417 383 369 411 340 360 366 362 369 392 410 326 331 330 320 323

GFSMW_2pvu_pres_003.txt.gz
Presure
108 157 118 198 138 181 193 166 179 167 162 141 135 136 140 140 131 103 103 106 111 160 171 170 165 164 169 163 127 168 167 141 175 184 176 153 135 167 166 167 165 156 153
239 129 195 127 155 187 188 178 176 174 151 179 176 143 169 163 161 102 142 90 153 169 170 168 168 164 171 144 153 167 159 156 161 162 173 152 164 172 176 175 158 174 174
218 222 211 214 186 141 186 170 170 169 126 150 123 124 163 101 103 100 98 166 175 176 161 156 172 157 167 171 160 133 157 179 158 139 185 170 164 159 154 164 175 175 183
201 132 139 125 125 161 167 150 174 170 131 115 143 165 103 103 163 172 171 170 173 175 172 169 157 178 175 132 175 165 170 174 177 172 161 173 169 171 158 172 184 138 191
195 156 106 206 201 194 139 111 111 109 160 153 129 160 165 169 133 167 175 155 160 166 161 155 164 119 127 182 179 154 153 168 192 171 175 185 182 186 197 147 166 169 199
191 197 217 209 204 191 117 123 145 160 158 159 150 148 170 166 158 148 175 172 170 177 141 148 181 188 190 180 171 177 190 170 176 124 171 190 183 188 184 164 115 142 133
188 192 194 139 184 98 142 159 137 147 158 155 169 170 170 158 154 172 162 177 167 175 190 191 187 169 169 181 193 179 175 169 129 190 189 148 188 143 148 126 146 116 138
189 184 191 194 199 199 198 200 200 152 135 135 108 164 147 162 169 157 177 171 151 153 177 174 165 164 191 180 190 173 182 155 179 133 120 123 135 192 141 124 148 154 220
120 135 187 190 186 183 121 191 197 162 198 200 144 169 149 163 157 168 126 177 163 168 153 187 170 194 165 176 169 129 182 131 145 140 144 156 203 153 205 175 180 247 212
156 165 199 189 182 182 159 119 125 131 186 193 201 211 197 202 144 153 135 185 154 176 197 197 181 167 168 132 162 133 203 145 179 131 179 141 222 193 228 244 218 263 262
161 176 187 183 181 184 182 185 184 186 185 190 177 192 182 144 173 184 193 194 196 203 204 148 174 204 200 166 159 172 147 153 170 157 206 197 219 240 256 273 317 427 405
178 180 185 181 168 187 192 192 192 184 180 182 175 169 169 185 172 174 187 193 192 193 168 135 165 139 143 140 135 192 142 221 239 237 172 238 252 357 245 443 443 438 432
179 175 180 170 175 171 151 179 185 195 189 167 186 192 187 155 195 181 206 170 139 142 148 179 130 126 142 138 105 231 236 238 231 248 265 299 283 444 434 424 414 408 400
175 169 175 186 165 181 173 172 169 179 180 188 166 176 156 206 214 210 111 162 185 137 128 136 144 170 197 180 224 221 208 221 251 277 264 450 438 422 408 399 394 390 388
186 186 199 176 198 163 190 154 196 172 139 196 183 202 211 186 107 196 135 131 132 134 148 164 137 204 230 215 178 239 226 250 273 404 448 425 408 400 403 486 496 496 519
182 192 195 195 165 193 161 163 136 198 201 221 216 216 185 99 171 198 130 142 132 138 145 185 213 135 215 212 223 238 228 208 458 446 423 404 399 451 447 440 426 415 423
191 195 192 192 175 148 201 180 198 218 216 214 197 199 104 156 130 132 132 133 142 188 132 194 131 216 212 211 216 251 313 408 444 421 402 403 435 420 415 407 399 447 456
194 154 164 203 160 176 202 212 217 221 225 222 192 190 208 127 130 160 126 144 206 128 173 214 216 217 239 242 262 226 395 385 421 399 389 439 423 403 398 395 421 426 446
185 194 193 192 157 237 230 223 220 206 206 208 213 144 125 176 148 183 181 144 209 209 211 212 206 209 218 250 326 392 384 367 401 386 440 428 412 389 394 385 410 414 418
141 144 130 210 227 193 206 206 203 218 206 125 125 127 164 169 164 136 209 178 205 210 218 234 207 218 263 309 396 384 427 409 387 380 416 399 402 387 390 383 409 411 414
210 213 232 227 208 221 209 202 218 125 123 159 164 167 163 135 164 195 203 175 138 187 220 238 220 244 330 373 375 366 412 393 385 459 394 417 401 378 380 383 407 414 424
228 211 203 213 206 214 213 158 122 126 210 166 172 167 143 205 201 204 220 218 184 206 220 245 276 326 313 366 365 420 394 384 377 414 377 400 364 374 378 387 410 423 424
212 219 208 224 212 143 117 123 195 162 163 190 191 202 196 203 187 213 203 205 216 249 267 288 332 305 364 361 422 404 385 372 426 391 360 413 316 373 371 397 418 345 351
229 222 214 214 130 118 125 167 174 203 194 201 198 203 200 194 194 223 216 169 247 268 294 325 290 365 360 427 412 386 376 399 412 393 359 344 324 355 383 411 320 341 342
135 139 161 132 153 168 192 199 198 133 187 168 203 174 192 192 219 222 236 247 264 297 323 300 368 360 430 414 397 383 361 421 408 475 410 342 350 352 395 310 327 336 332
149 210 178 168 193 197 203 200 128 135 194 152 212 219 216 216 198 226 244 265 297 316 361 367 354 353 413 401 374 369 425 400 422 444 451 343 342 382 402 306 327 325 322

GFSMW_2pvu_pres_006.txt.gz
Presure
80 154 142 144 229 221 125 201 173 180 179 189 164 175 169 168 144 178 145 136 99 103 157 153 160 154 159 179 176 157 148 177 155 149 121 151 184 159 160 181 168 141 168
185 197 210 229 216 159 207 199 163 186 192 191 177 181 171 132 113 162 131 106 142 82 170 175 177 177 177 175 170 165 157 119 131 127 171 160 183 177 155 149 163 162 182
193 184 197 234 219 214 174 135 181 166 189 189 166 178 175 162 110 121 144 166 169 168 168 151 172 154 154 163 155 157 142 174 153 152 183 171 168 159 152 160 169 165 169
106 195 163 202 198 205 206 212 193 125 183 141 146 108 124 175 162 156 161 162 166 171 131 157 168 175 170 141 154 148 143 179 182 176 163 182 189 171 164 171 171 168 142
170 176 178 194 203 209 197 202 107 192 165 109 104 128 148 173 164 159 99 152 126 165 165 164 170 165 128 128 167 190 185 188 174 194 169 162 125 107 173 185 202 73 185
184 188 188 188 201 180 96 210 207 164 193 181 178 129 145 166 126 152 164 170 161 172 159 167 151 128 180 179 152 177 189 192 172 182 175 169 170 172 141 107 185 156 143
143 173 176 184 186 192 194 156 198 205 197 195 196 169 176 177 140 144 152 148 151 160 166 164 127 151 194 200 206 201 197 189 204 206 176 170 184 129 170 194 152 203 160
174 134 172 182 175 186 186 191 191 197 200 201 202 203 201 200 175 144 197 198 204 210 201 149 179 190 196 157 192 191 185 196 195 211 202 180 137 150 151 224 170 177 146
171 164 180 171 180 182 145 167 186 191 192 190 185 192 187 188 193 198 184 140 198 201 142 164 193 195 169 189 148 145 172 131 159 141 147 111 192 198 156 189 230 228 241
173 170 159 187 167 168 168 183 190 190 185 185 183 184 188 186 190 148 183 186 180 172 195 204 197 179 126 145 206 133 131 144 139 199 137 151 165 222 217 230 230 227 251
162 169 165 169 158 165 169 183 188 183 181 181 185 191 185 186 185 174 158 149 191 195 211 193 114 157 138 188 132 130 143 186 188 145 211 205 210 207 223 230 247 243 260
160 191 179 180 160 172 181 161 179 170 160 175 173 173 179 181 147 187 181 183 224 227 115 129 214 135 135 202 129 144 132 141 154 216 212 160 243 217 236 250 251 448 438
179 171 196 180 155 162 180 171 177 171 168 194 188 125 185 181 145 205 201 226 211 104 124 137 203 132 190 150 165 127 156 203 150 220 227 233 238 251 238 240 452 431 412
174 168 180 178 179 173 165 190 186 192 184 180 142 184 167 199 210 209 187 197 130 148 211 135 129 134 188 150 135 184 217 193 223 231 231 235 236 242 340 446 422 407 459
178 184 181 182 189 182 191 191 192 193 191 153 180 167 159 205 222 225 231 215 204 213 135 133 216 202 137 162 210 114 215 218 227 226 257 241 334 370 440 419 404 452 442
185 189 177 173 171 175 175 187 192 190 128 131 201 210 209 229 229 206 207 215 173 131 144 225 170 136 208 182 217 215 224 224 216 258 313 248 384 437 417 398 445 417 419
162 170 178 185 192 191 184 159 131 190 205 200 214 228 226 202 220 215 212 125 131 208 207 165 131 200 213 215 218 227 231 230 266 303 352 380 435 414 398 433 427 382 400
187 192 191 161 184 150 157 142 151 206 205 234 195 205 225 217 215 140 126 215 217 186 144 169 180 212 215 206 215 226 223 249 297 446 378 436 412 393 392 433 401 417 356
191 189 180 185 137 139 172 206 145 201 223 237 224 217 156 123 125 197 214 180 192 185 196 210 210 212 199 225 226 247 267 309 443 376 424 409 390 383 433 414 381 356 334
189 136 137 193 198 204 203 213 245 236 210 215 203 125 120 137 213 195 176 202 196 128 210 221 218 218 217 219 253 289 345 454 376 367 415 389 378 433 423 418 439 328 371
133 174 192 203 200 210 179 231 217 203 191 227 121 120 157 205 179 203 179 175 176 209 197 216 213 213 222 260 292 389 449 377 365 421 389 378 421 415 407 418 363 358 392
142 208 203 231 206 231 207 211 170 170 224 205 145 210 183 202 195 133 170 208 199 210 213 205 216 226 268 297 356 453 377 366 422 398 373 385 410 430 447 466 346 372 391
210 251 232 167 216 218 232 148 210 193 206 204 196 209 132 193 177 134 201 187 212 219 215 219 226 283 325 328 447 373 365 419 407 375 367 409 412 426 448 428 357 400 326
229 220 221 226 215 134 217 245 160 192 200 189 190 181 193 188 188 196 188 170 217 221 224 236 311 333 367 447 365 364 427 411 378 366 412 411 449 474 465 351 397 309 333
227 227 204 131 149 257 186 198 223 196 188 180 163 180 157 183 193 189 194 192 223 233 254 335 365 436 389 355 371 433 416 387 367 427 403 420 427 459 352 407 306 325 327
231 207 167 193 207 214 224 208 190 187 162 125 154 187 187 192 206 198 214 218 218 304 346 356 379 377 351 373 427 416 388 364 413 403 414 420 381 376 419 309 321 324 316

GFSMW_2pvu_pres_009.txt.gz
Presure
207 84 156 97 118 190 208 231 223 216 122 129 199 151 181 179 188 182 176 172 171 143 121 127 133 169 169 170 175 178 142 172 172 134 163 156 147 138 136 153 154 151 162
76 150 79 193 190 150 138 216 217 216 213 203 195 181 186 173 154 170 181 149 108 171 163 160 172 167 169 172 173 179 165 171 121 163 146 157 163 161 166 181 181 180 167
186 125 198 185 91 161 220 107 114 213 209 199 199 183 179 126 129 116 110 149 118 175 163 161 128 154 142 160 165 165 162 165 127 174 165 150 163 166 172 155 173 176 136
196 167 184 193 175 185 106 197 166 206 205 205 200 137 127 187 120 149 104 145 152 180 130 137 148 160 158 167 150 164 140 126 169 148 152 177 193 161 157 188 172 188 98
178 185 191 180 161 196 186 193 200 208 201 122 147 194 199 189 188 181 187 152 137 142 153 143 148 146 144 153 167 158 134 147 165 203 161 159 197 187 190 187 214 189 193
195 182 173 183 97 176 180 180 188 201 204 119 205 208 210 212 194 195 189 185 182 170 176 179 199 153 147 167 200 132 198 199 190 168 198 205 202 180 179 218 187 118 171
180 173 177 89 170 125 178 180 180 182 190 193 193 156 194 194 194 197 198 202 197 194 194 192 151 124 194 190 193 199 193 194 199 208 225 185 115 221 164 219 202 176 118
172 179 87 170 168 174 128 183 186 172 187 164 177 189 191 193 193 193 192 191 194 194 193 119 196 198 142 178 194 189 196 158 224 230 223 144 181 210 159 142 218 145 213
177 172 170 96 117 177 164 177 178 75 171 160 170 182 190 190 187 186 190 190 198 201 189 184 188 141 192 191 183 191 147 225 223 143 143 167 137 120 205 151 211 143 231
166 189 113 179 167 177 164 173 171 182 164 181 173 181 171 174 170 181 184 179 180 183 184 150 183 169 172 216 134 118 227 195 171 164 136 143 127 230 130 121 180 214 219
141 190 178 170 173 170 168 162 179 170 182 189 170 171 170 184 198 180 170 190 182 165 176 186 186 216 233 190 131 168 190 218 139 210 177 135 215 133 213 216 224 227 239
156 178 176 188 158 159 189 184 175 182 169 170 170 185 170 189 172 198 196 142 193 192 178 200 235 232 218 210 185 217 211 178 192 213 214 219 145 211 222 232 234 249 255
180 173 155 165 183 188 193 185 186 191 191 184 175 169 190 176 189 176 148 192 193 219 237 237 229 215 221 218 137 135 161 181 213 209 189 202 219 230 235 237 248 317 449
182 159 179 180 171 175 171 189 171 178 187 183 181 199 191 182 183 165 166 197 210 238 238 210 223 218 171 169 159 142 214 210 206 116 212 220 221 235 236 250 361 439 402
154 156 168 185 186 190 171 174 170 170 194 181 180 177 186 148 174 182 213 215 241 236 209 221 222 134 200 211 214 206 202 208 142 205 185 233 239 247 263 471 428 439 429
181 178 180 173 170 174 167 171 166 191 174 172 192 151 135 186 195 210 218 235 223 217 216 127 137 205 213 200 178 196 206 156 217 228 238 235 250 272 462 420 434 424 393
190 179 172 175 178 179 185 191 186 191 150 133 144 174 193 202 218 236 241 209 223 121 133 157 212 205 203 166 155 203 187 214 233 234 241 256 470 456 376 415 422 396 375
170 167 169 172 174 185 187 190 150 131 167 195 191 197 207 230 215 242 176 124 130 185 216 210 148 196 203 205 197 208 213 225 237 244 262 468 396 364 412 419 395 380 421
174 176 177 182 179 189 143 131 138 209 203 196 153 218 225 133 238 125 222 127 213 211 200 140 192 199 197 200 208 220 229 241 251 368 458 369 361 435 418 394 378 422 450
185 184 171 179 133 131 176 144 211 193 181 198 250 181 148 199 238 239 244 213 204 191 181 199 191 202 192 213 223 234 247 315 359 461 367 354 425 413 388 372 418 456 501
155 198 182 208 223 134 212 207 166 192 201 167 234 205 235 242 256 218 221 204 154 136 196 199 201 203 220 226 237 243 384 359 377 352 388 423 410 387 366 418 432 456 430
177 171 194 228 221 216 191 199 200 225 236 172 219 244 257 240 210 228 204 137 146 191 204 205 212 217 226 242 321 386 388 361 438 437 425 406 384 365 421 430 483 353 399
219 217 196 213 202 198 200 233 235 186 137 234 253 229 219 228 215 165 141 139 194 207 207 213 222 235 245 429 411 450 355 439 428 420 404 380 366 428 427 405 395 429 325
123 125 196 156 206 237 235 165 233 141 247 217 215 229 214 201 164 190 195 162 202 205 217 228 242 299 431 409 458 447 438 429 418 402 375 365 438 428 382 412 400 309 329
193 215 236 231 228 230 232 144 136 192 218 224 208 193 205 165 191 182 210 200 210 218 235 265 304 396 468 452 443 439 430 415 396 375 385 452 423 383 402 361 309 323 317
233 231 230 229 225 171 145 213 220 219 205 193 157 191 147 193 181 218 203 213 223 247 297 293 454 360 453 444 431 420 404 381 374 508 461 422 387 375 336 311 323 316 325

GFSMW_2pvu_pres_012.txt.gz
Presure
206 191 100 90 78 97 97 200 205 192 233 120 214 214 212 204 199 195 185 187 183 173 140 136 174 107 110 167 180 175 153 153 141 144 163 167 183 163 140 169 175 174 148
99 86 126 96 99 76 143 100 99 87 219 186 200 206 205 207 203 155 175 182 176 139 112 168 112 181 184 175 145 166 161 151 156 144 157 161 179 128 126 156 162 172 161
97 95 113 147 183 95 98 89 123 197 184 204 210 188 207 206 204 195 105 149 140 175 149 185 148 153 137 140 151 162 170 142 155 152 151 153 161 127 185 200 197 173 185
200 206 196 186 196 193 193 187 173 189 188 193 144 210 155 186 204 208 130 127 187 199 198 187 189 184 187 188 184 149 155 180 190 203 153 196 130 203 200 197 198 195 194
208 189 186 193 194 188 183 96 157 191 185 113 188 188 204 209 207 138 96 204 209 214 208 202 200 200 202 200 198 192 194 194 146 131 194 200 186 191 201 189 177 194 202
194 189 187 194 189 184 182 171 179 176 177 183 176 177 181 192 192 185 178 184 191 190 192 193 194 196 195 192 195 195 172 152 201 201 172 186 182 181 194 195 231 229 226
191 186 190 180 186 183 175 181 148 171 178 178 165 147 174 170 159 164 127 180 192 193 180 180 160 187 190 183 181 184 189 185 182 188 188 177 219 237 234 240 238 226 155
189 189 180 182 174 177 172 174 168 168 173 178 174 165 161 182 172 201 175 176 177 169 174 181 187 170 173 181 181 179 171 136 171 234 243 234 231 229 223 179 173 147 141
176 138 126 89 173 176 104 160 166 180 172 176 168 162 180 163 186 178 181 159 170 179 181 173 176 186 184 190 193 134 203 228 240 235 232 217 218 213 177 239 147 158 224
187 179 178 180 175 179 103 180 175 186 167 178 169 176 178 177 179 172 166 173 180 177 192 181 200 188 197 155 183 208 242 239 227 209 222 223 199 236 137 152 219 221 184
186 185 176 177 168 176 169 187 190 174 176 167 163 192 177 171 176 192 183 189 197 174 209 203 198 192 170 144 178 239 242 217 217 223 212 167 179 201 219 220 203 214 212
177 183 172 177 161 118 172 177 184 165 172 185 181 172 168 164 172 177 169 199 201 180 181 194 168 144 201 216 248 238 202 220 224 162 149 222 219 214 186 203 212 218 226
185 169 172 186 177 169 175 163 164 180 183 199 188 178 172 169 179 188 172 200 196 179 195 177 215 208 212 248 242 212 229 209 159 227 216 211 200 208 205 215 226 238 258
176 172 169 173 171 166 173 169 159 169 179 179 186 184 193 193 189 190 180 169 173 174 167 199 208 219 242 233 165 134 134 236 212 135 205 209 213 215 222 231 250 272 394
178 172 170 172 171 170 174 184 174 172 172 181 176 181 179 174 186 195 189 185 141 208 216 214 247 183 146 200 124 234 213 209 177 202 214 208 217 227 242 262 393 378 396
179 172 179 173 179 179 189 189 183 193 175 177 171 173 180 192 191 154 131 215 197 168 217 253 140 146 237 137 233 220 131 172 201 215 208 218 233 251 275 483 384 454 440
175 177 175 180 186 189 192 192 191 185 174 171 178 187 178 131 224 228 223 172 209 255 137 148 245 246 241 195 205 193 199 205 206 212 224 242 263 482 475 406 450 442 417
179 178 184 178 177 175 174 171 171 172 181 189 185 130 228 230 231 228 212 220 179 171 129 258 260 228 189 160 133 196 207 200 210 231 251 425 480 464 451 445 441 417 380
166 165 174 135 180 181 183 187 189 192 150 197 132 231 239 229 219 206 241 139 140 243 272 229 213 223 213 178 196 207 216 213 239 305 473 462 455 447 440 433 416 383 442
180 184 186 188 187 189 190 192 199 201 255 142 233 229 249 213 218 171 141 244 247 225 215 182 151 208 210 201 210 220 234 259 319 473 460 450 442 436 422 402 382 479 430
188 185 187 190 126 196 173 202 253 242 235 225 237 220 206 239 141 140 245 227 219 216 210 201 215 201 209 206 223 238 319 328 450 466 456 442 429 411 387 378 474 432 380
190 191 195 200 183 207 187 243 233 235 244 219 213 231 148 143 193 230 220 219 212 206 208 205 201 213 209 227 244 315 349 466 459 450 432 413 393 382 517 462 432 401 399
199 207 202 245 247 181 169 129 134 205 202 242 235 144 220 276 216 220 209 203 181 211 202 201 213 214 231 286 306 360 464 451 437 415 392 520 523 495 440 411 397 371 316
197 183 204 152 165 224 239 207 207 240 225 160 241 274 207 218 211 203 206 213 202 201 210 207 221 231 296 322 474 461 447 428 404 525 513 498 464 425 391 385 349 313 322
184 229 222 221 215 200 222 239 184 146 239 277 213 210 209 197 191 207 205 210 200 215 208 227 251 306 336 409 378 440 418 418 506 500 481 432 418 381 368 333 318 327 319
241 217 207 202 234 241 213 203 243 271 229 175 204 198 206 199 201 211 198 207 214 212 229 271 310 342 359 454 437 411 487 494 486 455 417 425 378 351 327 336 318 312 302

GFSMW_2pvu_pres_015.txt.gz
Presure
108 179 119 228 198 189 173 102 83 204 97 104 211 87 115 95 217 217 106 207 202 201 196 195 136 115 180 123 104 104 101 187 159 129 136 158 173 165 135 153 155 144 166
191 115 195 124 138 227 81 212 116 207 123 94 201 107 201 113 213 208 207 206 210 207 201 115 97 97 191 151 193 203 195 188 191 193 157 163 157 145 145 157 167 207 170
186 144 111 76 205 123 94 96 149 102 199 196 194 166 182 195 189 215 211 203 202 201 200 198 197 131 202 210 210 206 204 203 203 203 199 196 191 189 199 204 199 198 201
110 111 114 185 204 203 140 104 192 176 180 193 187 181 197 183 191 188 135 192 196 195 194 121 187 189 190 191 192 193 194 196 193 194 198 196 190 182 178 181 184 182 184
110 197 115 203 201 199 115 189 198 181 191 181 187 182 181 182 182 187 179 177 183 171 172 171 171 188 188 184 176 179 173 184 174 173 183 185 190 193 130 192 196 195 194
186 191 139 200 201 202 193 196 193 187 183 184 182 156 178 183 179 183 114 165 183 168 116 186 181 175 166 187 174 180 176 185 174 189 183 183 192 197 195 200 200 218 223
185 208 205 198 207 196 190 196 189 89 183 179 142 180 96 172 179 171 174 173 180 173 181 179 179 171 179 178 182 178 188 178 190 206 201 196 192 202 209 254 259 253 244
190 207 200 209 199 185 195 188 191 182 181 82 147 125 178 181 170 181 166 174 178 186 173 181 181 170 195 172 174 195 192 184 191 182 201 203 200 227 255 253 257 226 229
198 204 172 199 199 190 186 180 186 181 181 171 176 152 187 163 180 183 177 183 181 172 180 188 203 184 173 179 190 211 214 187 207 197 206 145 167 254 250 225 232 231 253
207 206 200 195 196 192 183 183 184 176 176 179 179 178 184 170 171 184 172 189 187 192 172 185 176 185 190 191 195 208 220 209 191 173 238 249 248 225 180 248 256 246 221
208 199 195 193 194 183 185 181 179 164 169 176 170 183 176 171 174 164 184 173 198 177 191 196 183 176 197 205 206 220 202 162 244 254 249 221 230 126 253 241 233 158 154
199 197 188 192 188 183 190 175 185 180 178 173 175 163 177 168 171 172 176 189 186 180 175 174 186 194 205 224 222 150 211 226 250 209 148 123 133 242 213 134 207 215 216
200 195 195 193 187 178 176 177 175 185 177 172 177 172 166 177 178 175 178 181 172 174 182 192 244 209 227 185 194 254 255 227 195 156 267 238 202 152 177 211 212 221 226
198 172 185 187 176 180 178 175 177 177 173 178 176 175 179 194 196 198 198 175 181 189 202 249 211 223 230 214 252 248 179 141 174 226 216 178 188 166 205 215 222 233 368
184 177 178 184 180 182 181 177 178 179 177 174 179 190 192 190 192 188 180 192 198 241 246 211 231 223 219 246 188 144 142 214 177 217 196 195 204 210 219 227 273 488 477
172 172 176 176 175 178 177 175 180 177 175 183 187 177 173 171 188 194 196 211 135 141 236 226 215 124 250 143 141 233 207 218 143 214 201 204 214 225 249 489 478 469 457
177 178 177 177 174 177 179 178 179 183 170 170 171 184 191 193 194 194 195 134 143 226 218 219 250 153 142 166 226 215 220 167 202 197 210 217 242 310 485 477 465 449 427
180 175 169 174 180 176 170 167 168 173 178 183 189 193 193 167 194 252 243 232 234 212 238 219 194 142 228 209 218 164 204 198 206 216 227 281 378 477 466 452 427 399 386
180 182 176 168 172 175 177 179 180 185 188 191 194 199 208 220 250 234 243 216 218 185 142 144 142 196 216 212 209 205 208 209 227 245 380 382 472 456 430 484 563 555 523
177 177 178 179 180 177 183 187 188 193 137 139 200 206 251 163 203 230 211 241 185 150 195 206 208 215 213 202 209 213 227 245 291 367 385 460 442 523 525 521 517 492 441
180 180 183 185 188 187 182 186 192 193 193 175 173 246 138 176 215 227 240 226 274 223 216 214 209 192 200 215 223 233 248 307 406 406 455 434 517 510 497 484 447 428 396
186 184 182 182 170 192 192 155 185 199 179 247 212 235 214 225 245 232 245 270 220 208 208 199 194 199 207 227 237 281 318 460 472 446 434 510 493 477 448 425 394 404 366
185 191 192 191 193 133 176 205 207 247 208 234 226 153 149 240 196 266 242 201 210 191 203 192 198 214 224 239 290 313 480 468 440 413 493 470 447 424 421 386 378 340 319
187 138 186 194 175 200 214 245 206 232 241 217 219 242 229 250 269 203 210 204 196 199 206 204 217 228 272 294 319 496 471 439 478 483 450 428 432 386 375 360 326 333 319
193 199 174 225 245 241 233 229 233 178 184 240 224 228 267 215 208 168 195 175 197 193 221 225 237 287 291 334 491 470 435 504 485 445 429 434 378 363 353 320 368 316 305
248 244 238 233 232 226 215 157 233 240 232 242 263 226 205 200 178 193 179 194 195 218 225 261 286 298 338 469 469 432 497 488 445 434 414 363 348 336 326 384 311 305 294

GFSMW_2pvu_pres_021.txt.gz
Presure
197 184 189 110 199 112 197 109 110 108 107 106 101 101 125 82 82 182 194 113 110 170 205 196 201 193 188 191 192 192 189 190 185 185 183 190 183 191 192 182 188 190 182
125 104 158 189 99 111 125 84 113 114 193 110 112 91 83 126 113 120 202 185 152 124 204 196 195 193 179 184 172 184 176 179 179 173 167 182 180 173 178 177 171 187 187
220 198 89 136 95 170 181 151 122 96 91 112 93 130 121 188 116 179 108 105 182 176 182 191 191 178 180 177 154 181 181 180 181 180 167 171 179 162 172 186 185 183 195
214 207 189 176 185 183 132 177 114 81 108 108 150 193 208 198 105 132 118 187 191 190 155 111 106 179 175 173 180 184 171 167 175 185 181 179 181 184 183 183 180 184 184
240 82 163 184 175 184 108 200 136 120 161 163 212 208 194 114 108 107 194 192 193 192 189 165 184 179 184 184 182 172 177 172 180 178 167 183 179 193 173 161 184 186 187
232 239 207 193 173 189 179 184 181 151 176 147 211 208 205 205 114 136 194 193 182 194 190 185 180 184 177 188 174 173 181 170 177 178 174 181 171 162 167 181 180 170 179
232 243 214 195 180 186 179 187 182 183 188 211 200 211 204 206 202 194 194 193 192 186 186 181 183 178 188 172 178 171 172 173 181 198 198 199 197 204 196 268 250 246 232
203 244 231 202 185 181 179 174 180 187 182 177 201 213 203 204 198 194 193 192 188 187 181 191 188 173 176 180 177 169 180 198 196 186 187 208 282 276 255 242 229 260 262
219 243 232 207 188 185 181 181 175 182 179 179 205 210 205 202 195 192 184 192 192 187 179 185 183 176 180 179 176 185 183 182 194 206 222 275 216 244 225 265 263 256 284
222 242 201 204 191 189 181 180 172 181 177 173 212 208 209 201 194 190 188 189 188 185 185 190 185 181 179 175 181 180 190 200 202 209 271 248 225 242 254 236 284 258 224
221 239 229 201 190 188 183 178 171 180 176 187 210 208 207 197 195 190 188 189 181 191 184 184 184 174 181 175 189 191 196 203 213 264 247 224 143 242 262 283 227 220 153
221 240 229 199 191 185 185 176 184 181 183 190 204 209 201 196 193 189 188 190 188 187 189 173 187 175 184 188 190 198 203 215 261 242 226 259 233 285 213 185 203 212 214
225 231 218 197 190 186 184 188 182 179 187 208 203 202 195 192 188 191 190 192 187 182 177 174 181 185 186 191 195 201 217 257 235 234 258 254 274 215 180 207 208 221 218
234 228 218 196 184 183 184 187 180 181 192 207 199 194 192 193 193 189 175 182 179 171 182 184 185 187 192 170 200 215 259 226 257 254 274 209 220 164 209 226 234 231 270
230 163 214 160 187 184 187 179 179 186 197 209 201 193 190 186 182 179 184 171 179 183 186 182 165 191 144 205 166 249 221 262 238 275 211 210 207 225 225 236 252 316 324
227 219 211 187 174 184 179 177 183 193 205 202 179 187 185 179 178 179 171 181 186 184 182 191 190 184 205 230 244 226 259 245 228 213 195 212 223 233 233 263 310 340 536
224 217 204 178 184 179 171 183 191 205 197 193 182 186 183 181 170 179 181 187 180 145 191 188 194 208 249 220 174 256 263 210 204 190 218 224 229 241 309 311 336 535 491
219 206 185 182 180 174 176 188 199 183 179 183 171 178 183 175 182 185 183 133 192 188 189 203 219 230 222 224 244 237 201 176 179 215 226 227 253 309 315 342 525 489 451
216 189 183 180 169 177 181 177 181 188 189 185 186 179 181 182 186 141 184 190 190 199 206 243 231 225 256 273 201 204 200 200 219 222 232 297 304 317 344 517 496 451 453
191 176 177 173 175 180 172 188 183 185 184 180 185 182 185 181 151 192 187 196 203 219 149 217 260 254 262 196 204 161 205 215 218 239 296 295 310 358 496 496 453 410 387
174 177 173 176 173 172 187 182 185 180 185 183 184 186 182 185 191 191 201 155 248 238 218 260 269 211 185 161 190 206 219 223 266 291 293 311 369 498 489 445 396 377 373
176 177 171 171 174 177 180 185 184 184 146 162 180 189 190 192 202 203 131 236 203 245 261 259 195 200 178 205 212 217 225 283 291 302 315 365 515 487 437 386 370 369 327
178 171 179 174 178 184 184 183 166 180 173 188 189 192 201 203 228 150 224 224 265 275 221 201 198 196 207 211 212 242 303 292 306 316 465 519 481 436 385 364 370 381 372
175 177 181 183 127 184 137 187 189 189 190 193 201 203 246 144 226 220 284 288 235 200 198 189 183 203 210 215 244 303 301 309 315 490 525 472 432 387 364 348 359 357 338
182 184 185 185 185 190 192 191 190 196 201 204 251 208 151 212 291 281 235 204 210 148 182 170 202 206 224 255 299 310 313 346 452 535 467 426 385 365 356 353 339 337 332
183 186 191 191 190 190 192 201 201 226 247 234 139 138 282 279 224 211 212 170 199 197 202 204 215 237 281 305 311 306 343 490 531 472 423 381 358 346 344 333 326 319 317

GFSMW_2pvu_pres_024.txt.gz
Presure
246 238 249 111 118 97 78 100 125 101 141 87 109 110 114 109 105 111 109 113 117 178 117 130 143 202 207 205 157 190 191 193 187 185 187 182 180 182 182 187 193 189 177
280 245 241 246 204 195 180 121 178 189 102 117 190 209 112 111 103 105 94 89 134 167 109 129 185 111 110 202 193 194 183 176 186 184 179 174 183 177 164 163 170 180 184
270 278 231 239 239 198 192 182 176 145 107 105 111 126 79 97 108 91 109 108 126 167 154 188 110 111 199 197 183 144 190 187 180 180 172 187 180 172 180 178 179 179 180
85 265 266 230 240 110 200 175 93 164 177 192 183 109 194 111 114 111 108 189 194 213 213 184 204 167 189 191 192 185 190 186 179 186 186 176 177 172 154 171 175 188 187
247 263 251 229 238 230 194 194 193 144 106 196 183 134 118 111 104 107 114 219 211 210 202 204 195 194 192 182 192 191 190 182 180 182 184 172 179 173 178 158 154 181 183
150 245 258 257 194 239 182 201 200 191 170 203 174 193 176 191 188 187 219 209 212 203 205 197 195 189 195 188 192 187 189 185 192 178 180 180 177 174 175 186 184 196 194
235 245 251 264 225 115 80 202 202 194 172 195 179 184 179 180 186 213 198 211 205 204 196 197 192 193 190 192 189 187 185 184 182 182 180 168 179 186 190 201 203 218 271
239 222 249 259 74 223 239 218 202 193 184 172 184 177 173 184 186 180 188 176 205 202 202 195 190 194 193 187 193 185 187 191 190 183 182 186 186 195 204 211 221 270 236
218 82 181 259 257 222 235 229 207 193 189 177 182 174 173 184 188 180 182 212 205 203 201 191 192 187 192 187 182 192 187 188 185 184 184 191 198 201 212 226 261 229 280
235 189 249 258 271 224 229 231 204 196 190 181 183 175 181 177 181 178 173 209 205 207 202 195 194 186 183 197 192 188 186 183 182 191 190 199 198 212 228 263 232 268 270
131 235 244 255 270 225 232 230 205 199 190 183 184 177 178 174 176 175 173 205 209 210 200 196 198 190 193 191 181 185 175 187 190 195 197 199 211 231 251 253 274 268 245
226 232 242 262 275 225 229 225 215 202 192 186 185 179 175 171 176 177 205 204 209 196 194 189 190 189 176 183 182 184 189 190 199 193 203 212 236 229 263 271 253 224 221
233 246 248 262 269 223 228 225 214 205 193 188 184 179 178 178 180 187 207 209 199 199 196 190 182 181 184 174 189 175 192 199 189 207 216 249 211 175 247 236 213 211 222
237 246 249 263 260 216 231 221 205 201 192 189 189 182 184 181 181 196 208 206 199 186 186 183 180 181 179 188 170 195 193 195 208 224 227 214 272 258 211 206 191 228 239
260 254 255 276 230 219 229 216 205 192 187 188 182 188 181 180 187 205 209 200 189 188 183 182 177 186 185 190 196 189 201 207 226 225 258 275 234 207 202 215 232 239 266
283 270 271 292 218 232 222 213 200 184 186 174 187 182 179 181 192 202 198 187 188 183 184 181 186 192 184 195 187 203 215 239 224 267 270 212 213 208 224 230 238 273 333
141 287 217 222 225 229 216 203 188 186 179 187 182 178 185 191 203 185 185 190 184 182 184 149 189 190 193 195 204 225 253 233 274 235 198 210 212 227 232 242 282 327 392
281 289 226 183 188 176 207 195 189 178 186 180 175 181 187 189 184 187 185 184 186 186 187 190 192 191 161 214 243 226 278 263 222 205 202 209 223 231 265 317 326 523 493
269 219 221 230 220 210 201 190 186 183 180 174 180 180 174 182 184 182 181 185 185 182 194 190 206 140 222 243 254 282 221 208 202 186 208 216 228 268 324 327 532 487 444
215 217 217 217 215 209 193 185 180 179 172 178 177 179 184 183 181 185 186 190 183 191 198 203 224 244 218 291 249 221 192 160 206 208 219 238 309 327 322 540 485 432 386
205 225 226 220 211 183 187 180 176 172 178 174 180 181 177 166 150 190 187 193 193 208 210 208 228 284 263 219 209 190 181 214 215 222 246 306 322 587 526 476 424 385 369
220 227 223 217 191 183 172 176 168 174 172 174 155 183 184 188 190 192 188 205 205 240 206 217 273 231 217 200 169 210 214 215 224 262 307 311 560 520 471 416 382 364 361
223 182 188 178 173 171 176 178 172 177 174 176 184 187 189 194 188 152 207 141 245 210 285 245 208 202 205 202 208 215 212 223 288 299 312 518 515 468 410 383 359 351 351
180 181 178 177 177 179 177 177 133 124 185 188 188 193 189 201 207 156 148 147 278 267 220 220 195 198 206 211 207 209 229 301 295 316 490 513 465 412 383 359 352 346 334
178 182 175 175 177 178 175 182 184 187 189 193 191 202 205 226 135 157 143 276 228 214 192 199 207 203 212 203 211 275 301 305 331 499 531 463 418 373 359 350 323 306 295
179 176 184 182 182 185 187 188 193 194 190 203 203 234 237 195 139 228 153 183 203 194 201 207 206 208 206 244 296 301 292 331 482 547 465 420 367 349 330 314 306 290 300

GFSMW_2pvu_pres_027.txt.gz
Presure
178 109 220 236 236 237 139 205 228 195 192 183 89 95 96 88 107 120 126 99 109 106 109 92 98 105 110 100 159 171 190 158 116 202 201 187 193 187 191 180 179 190 191
230 209 123 217 123 205 236 89 92 226 110 92 99 98 99 104 105 134 169 126 112 135 84 102 110 104 115 173 185 191 210 203 202 194 199 187 196 185 190 186 185 191 184
230 222 214 206 276 286 241 185 241 94 101 195 191 163 175 184 176 159 148 104 95 105 208 108 107 144 109 194 142 213 205 202 197 190 189 187 189 189 190 190 184 180 192
235 231 222 204 267 265 286 232 231 241 242 221 196 133 170 177 173 204 203 84 109 117 83 122 109 194 112 210 208 204 204 194 194 190 188 193 191 180 185 181 192 183 183
232 225 227 197 262 164 270 262 228 168 83 229 168 186 93 101 147 192 178 185 194 208 110 166 183 212 210 212 202 202 195 194 193 191 191 193 184 189 185 175 181 184 185
231 229 220 235 256 148 264 269 227 227 240 176 154 201 185 188 185 112 190 197 183 186 184 190 202 200 211 202 203 195 196 193 191 192 193 189 188 188 186 190 181 180 175
225 222 217 212 251 199 256 87 255 225 231 238 222 201 193 192 183 165 186 185 185 174 188 192 179 184 173 202 202 203 201 190 192 190 189 184 185 183 189 188 185 177 171
226 213 213 254 248 248 250 263 260 228 224 107 90 110 198 193 186 164 188 182 179 173 188 181 181 181 210 205 201 199 201 195 192 187 183 190 198 187 184 185 178 188 196
215 221 210 253 249 249 247 254 260 235 127 236 231 213 200 192 187 178 170 179 175 182 178 179 180 191 205 204 203 207 202 196 195 194 195 188 181 185 181 191 202 201 204
228 216 233 244 247 245 245 253 261 241 220 229 232 215 197 197 188 183 173 178 171 136 178 179 179 175 204 206 206 205 200 198 193 190 181 184 181 188 194 201 195 211 223
221 219 206 246 241 237 171 250 261 253 223 221 235 220 195 196 189 186 180 179 175 179 177 173 181 198 206 201 205 202 196 190 183 182 184 183 189 198 198 199 214 230 255
194 212 224 242 242 234 240 251 257 267 224 218 234 222 196 197 192 185 182 183 174 179 174 180 182 198 206 205 202 184 187 183 182 186 189 195 200 198 208 217 256 238 279
200 221 221 238 116 237 243 246 251 269 228 218 231 221 202 198 194 186 184 184 181 181 182 182 188 202 209 207 188 188 187 186 185 194 198 198 197 212 223 225 238 258 229
239 210 203 220 236 236 240 243 255 272 226 217 227 221 203 199 189 188 186 185 185 187 181 182 194 205 198 187 189 188 189 173 193 200 194 208 220 201 241 276 238 222 216
243 206 220 203 211 240 239 240 262 272 223 229 226 217 203 200 191 190 187 188 187 180 177 193 207 188 186 192 187 155 192 191 198 203 207 232 257 271 244 221 217 175 217
229 228 218 232 220 239 253 251 266 250 218 229 222 214 206 194 189 187 178 187 183 179 192 197 185 190 184 186 191 193 196 191 210 222 255 224 254 218 223 210 234 228 230
290 233 222 214 207 247 253 255 269 222 222 224 218 209 200 187 186 179 184 182 179 189 184 186 185 184 187 191 190 197 198 208 235 245 286 235 217 207 212 217 228 233 288
300 264 243 244 252 260 166 260 241 211 227 219 214 200 192 185 179 177 180 177 185 181 185 183 186 189 192 191 173 208 223 228 253 251 218 211 211 210 221 226 237 307 357
278 280 281 284 283 253 264 180 161 217 219 214 204 193 188 177 177 179 178 185 183 183 183 185 188 189 200 180 215 238 216 285 234 213 207 211 215 228 225 272 318 332 487
271 276 272 275 273 280 231 216 230 221 213 204 199 189 175 176 178 174 182 178 164 182 186 190 192 185 155 224 254 297 252 216 212 204 207 213 229 229 318 318 543 486 439
263 264 263 263 257 218 220 228 217 211 204 192 183 183 182 174 180 177 181 182 183 187 192 198 184 144 204 275 285 227 210 209 182 209 214 229 235 318 317 536 480 428 388
254 256 220 211 220 225 220 215 211 206 188 176 179 179 173 172 178 183 184 186 190 197 194 205 145 249 292 247 198 221 202 205 214 223 228 258 312 324 535 479 422 380 364
203 203 217 214 217 215 215 208 206 183 172 173 175 180 126 184 185 186 189 194 193 138 220 244 186 238 214 216 200 204 208 212 216 227 299 309 453 531 470 419 378 358 343
202 212 217 215 215 216 209 191 173 179 177 180 181 182 185 185 189 193 192 196 170 248 234 149 158 198 212 201 200 208 209 214 220 306 306 447 530 457 402 371 351 330 315
214 218 215 199 189 184 182 177 172 177 182 183 185 188 189 192 192 195 212 136 184 218 204 155 216 195 202 201 205 214 211 234 307 310 454 524 433 391 361 344 323 307 316
218 204 183 177 173 178 180 180 182 187 186 190 191 193 194 200 153 188 135 214 291 155 214 197 200 203 201 209 213 214 281 309 311 561 527 416 378 347 332 313 322 326 321

GFSMW_2pvu_pres_030.txt.gz
Presure
214 223 226 213 222 85 88 93 235 90 113 206 80 151 208 178 184 119 126 168 92 94 112 125 116 98 109 107 102 111 124 103 107 197 199 184 190 195 195 201 194 194 190
212 229 224 197 223 221 205 120 119 115 222 256 77 220 209 200 183 90 119 98 100 92 104 112 113 169 122 115 139 120 103 149 119 131 193 193 210 205 201 196 193 191 189
222 240 230 236 221 241 224 195 212 230 234 240 251 163 241 226 179 164 94 98 121 133 189 122 131 109 105 110 189 195 114 193 179 198 208 206 205 201 201 194 198 192 199
232 229 234 228 232 220 215 107 125 218 224 236 212 233 110 241 101 103 191 181 176 173 187 189 211 192 181 212 205 103 162 205 210 205 211 201 199 192 194 193 192 196 197
240 232 237 242 233 229 240 238 232 221 215 214 287 241 239 251 93 222 210 190 129 96 105 102 197 170 170 202 191 185 207 184 195 176 200 196 200 199 199 189 192 191 191
225 230 239 240 232 206 157 235 235 228 179 216 280 260 223 236 132 226 219 201 156 187 178 183 191 202 191 189 179 190 184 181 183 185 206 200 198 198 201 199 192 190 180
251 244 244 239 236 224 158 236 148 118 228 245 275 268 172 177 230 235 147 218 196 187 189 177 169 193 186 182 175 188 181 182 182 173 205 205 202 204 207 205 195 197 193
247 249 246 240 235 215 215 225 235 230 90 266 271 263 244 224 225 226 223 216 194 195 192 183 164 184 185 176 135 177 181 178 183 197 203 205 208 206 205 202 197 186 179
232 235 242 247 237 227 224 223 231 159 259 260 260 257 225 223 218 215 96 133 196 196 194 187 183 169 186 174 181 180 179 176 183 196 207 206 203 201 193 184 187 183 181
244 245 241 248 252 230 83 226 225 220 258 251 255 253 243 231 216 224 228 220 208 196 197 190 186 175 178 172 178 179 175 181 184 195 206 207 210 201 189 190 184 188 193
302 299 271 249 255 232 232 226 224 223 245 249 249 251 241 234 215 223 229 219 207 194 199 189 185 185 181 183 178 185 182 184 190 197 207 200 190 191 191 153 194 197 199
301 297 270 259 246 227 223 229 228 244 239 238 240 249 243 235 222 219 231 223 207 198 196 194 185 185 180 183 180 186 189 179 194 208 192 188 195 189 192 195 194 197 213
265 227 271 250 247 233 226 216 233 249 237 237 242 249 256 237 224 216 231 225 209 197 192 192 188 184 185 187 187 190 180 187 201 191 194 190 157 194 188 197 207 221 274
296 282 243 254 251 235 222 215 206 247 237 238 239 242 252 248 224 215 228 225 214 203 194 196 189 187 188 188 189 184 185 194 186 192 192 194 188 195 202 214 254 291 259
295 282 187 251 221 228 206 198 210 237 231 236 239 239 251 261 226 215 227 225 214 205 199 192 188 190 188 184 186 183 190 186 192 192 193 190 200 208 232 288 292 240 216
287 272 257 248 217 224 224 226 212 205 229 233 236 238 254 263 224 217 227 224 212 202 199 192 190 186 184 183 180 187 190 186 193 186 197 201 217 240 310 194 215 217 226
267 267 261 244 231 222 209 224 167 225 226 253 232 243 257 261 221 216 226 220 211 207 194 188 181 181 178 180 187 190 190 192 190 169 204 228 259 283 228 202 220 216 223
243 232 234 231 224 183 221 226 230 215 235 244 241 252 261 225 218 229 222 215 208 197 186 176 180 176 181 185 185 192 189 197 201 212 234 252 254 208 197 211 219 224 229
236 232 223 221 228 228 215 222 214 152 241 238 251 262 257 215 227 222 215 208 196 189 177 181 178 186 182 187 191 192 197 205 216 176 190 245 178 219 213 218 227 230 276
298 249 230 216 226 227 227 231 233 149 240 262 264 234 207 226 220 214 206 199 188 183 179 176 182 185 190 184 174 196 194 223 170 267 224 199 223 210 224 226 239 335 494
260 269 238 289 287 262 281 273 265 265 261 251 211 210 225 216 210 205 198 185 180 178 181 183 188 185 190 195 201 157 228 251 240 236 203 213 211 217 227 242 336 474 435
253 254 260 264 265 263 255 252 247 242 217 215 223 219 214 209 201 184 184 183 180 181 188 187 189 195 175 203 210 262 189 254 214 176 209 220 218 229 255 441 449 407 376
230 233 238 171 235 232 223 211 211 209 227 220 214 213 212 186 182 180 179 182 186 188 189 193 167 136 212 257 282 164 240 208 206 203 217 216 229 317 476 429 392 359 334
220 218 216 210 211 220 218 224 219 215 214 213 211 206 180 182 183 182 188 188 189 192 195 138 206 236 221 248 170 204 222 196 205 215 211 229 324 474 418 382 349 324 319
202 200 193 208 212 214 216 216 217 217 218 178 178 182 186 187 187 188 191 193 147 199 169 229 238 256 211 215 215 203 194 207 206 214 240 325 363 407 373 343 323 322 325
200 211 224 222 223 222 219 192 179 179 185 188 184 186 188 191 192 193 197 139 208 222 224 252 159 213 215 202 203 201 199 206 215 303 336 369 401 369 338 321 322 322 350

GFSMW_2pvu_pres_033.txt.gz
Presure
206 166 203 188 217 200 82 204 123 224 228 208 91 103 102 238 76 81 107 100 94 168 193 185 139 77 94 90 101 119 122 111 209 87 112 115 111 108 214 204 191 192 201
209 205 202 212 194 219 200 215 233 240 227 235 196 207 210 87 92 184 84 195 219 201 183 183 121 89 91 91 85 119 107 108 109 103 109 213 209 200 186 192 203 208 202
209 206 188 190 190 209 199 216 216 196 88 89 165 220 208 101 87 241 80 231 209 226 90 199 95 99 101 101 188 187 123 193 190 181 212 205 208 179 213 211 206 211 205
213 219 215 222 213 212 140 210 227 231 235 233 235 86 94 204 219 238 95 210 218 221 227 211 197 128 163 177 180 181 189 201 191 160 200 194 196 192 188 186 211 214 211
214 215 214 216 218 219 219 218 97 234 230 237 233 246 256 194 208 215 222 228 101 102 98 217 106 109 180 151 102 102 175 189 187 192 192 178 194 188 186 185 184 207 207
221 212 208 212 216 216 224 225 229 231 97 197 217 214 245 242 205 204 203 225 193 95 233 226 232 222 207 191 175 176 172 166 198 190 185 180 181 183 184 181 184 200 210
221 212 210 218 220 220 219 224 226 230 227 242 236 230 237 238 236 210 201 168 88 207 177 231 225 221 211 212 187 184 179 171 165 179 186 178 175 184 180 182 187 189 202
151 233 231 231 227 228 230 231 227 227 237 237 235 223 232 238 232 259 194 256 239 218 225 232 227 225 222 213 196 196 191 181 175 170 167 177 179 183 186 183 185 191 199
247 242 238 237 236 238 246 77 238 238 235 237 236 223 225 229 156 262 260 258 240 212 213 232 233 229 224 217 200 200 193 188 185 181 178 180 182 182 188 191 183 193 207
265 274 276 269 265 256 246 249 248 243 188 179 234 227 170 228 249 253 259 261 243 230 221 220 229 228 224 218 212 193 192 194 184 185 183 183 186 188 186 190 182 201 200
110 200 214 225 220 228 236 231 228 231 192 234 232 229 223 224 233 251 251 258 242 238 227 219 221 226 223 218 207 192 191 197 188 185 187 185 194 185 192 185 194 196 191
335 242 234 224 224 229 225 230 227 225 236 237 229 223 218 222 236 240 250 250 248 233 228 219 216 222 227 217 207 195 195 198 195 188 189 191 188 186 189 191 185 192 193
343 336 387 232 235 240 242 231 238 234 235 239 84 84 214 216 239 236 239 246 250 245 235 227 216 216 228 221 209 205 195 194 195 192 192 192 184 189 187 187 192 193 150
343 364 378 319 282 230 287 291 262 251 248 238 230 214 220 246 240 233 239 241 245 250 243 231 219 218 228 224 212 207 199 193 200 194 193 183 185 182 191 193 165 201 204
390 426 355 300 176 302 299 286 266 206 249 234 214 217 209 243 235 236 236 234 238 248 254 236 221 218 230 226 217 211 208 202 198 191 181 184 177 191 193 149 173 208 220
390 423 273 264 259 292 272 256 251 245 243 219 201 199 235 239 226 226 229 231 235 251 258 239 219 215 228 224 218 212 202 200 184 183 181 183 186 138 195 202 211 217 251
405 276 249 290 250 263 252 246 250 240 228 219 212 202 235 223 222 234 228 229 241 255 257 242 215 219 229 222 217 212 210 184 182 180 188 188 152 183 201 213 230 287 266
276 253 280 274 261 249 246 244 208 214 211 218 219 253 265 219 245 234 228 240 255 254 249 221 215 232 223 219 214 207 182 181 178 185 185 195 201 205 215 232 280 258 217
267 278 265 254 247 243 236 198 197 190 216 218 224 202 205 216 227 229 240 251 249 245 220 215 232 223 218 213 188 181 178 183 190 149 201 200 206 218 245 220 249 213 229
257 254 246 237 234 233 230 218 217 202 210 215 211 207 217 231 234 249 253 246 233 213 220 225 220 216 210 186 182 187 189 183 137 199 205 211 232 276 260 214 214 229 222
225 230 225 226 227 217 215 214 223 224 222 226 217 240 244 259 193 243 230 212 208 223 220 216 213 179 189 187 187 187 191 174 199 207 226 235 262 245 215 216 221 230 241
249 225 223 219 211 214 220 216 227 238 261 287 289 259 244 235 221 207 206 219 220 219 218 185 186 187 185 185 193 138 199 205 219 221 264 251 218 212 217 223 230 243 407
269 261 262 265 265 276 287 285 268 254 240 236 227 216 207 205 212 220 221 221 219 199 191 183 183 188 133 195 197 204 209 225 258 254 237 219 212 220 224 233 250 397 368
231 235 235 234 232 228 213 224 217 213 208 202 198 212 220 220 220 218 208 185 182 183 187 190 193 134 200 205 213 215 231 256 247 216 216 217 222 229 240 360 393 364 345
214 215 217 216 217 217 218 220 223 215 224 222 220 220 220 209 190 184 186 187 190 192 194 199 203 207 213 221 237 254 247 228 220 209 215 224 238 246 426 385 358 338 330
201 200 201 202 204 212 216 219 221 222 222 221 198 190 184 185 190 191 192 194 197 161 207 212 235 252 231 251 242 236 224 212 206 220 240 244 493 424 380 352 334 326 320

GFSMW_2pvu_pres_039.txt.gz
Presure
194 190 191 224 220 233 227 224 227 226 221 220 217 212 187 188 209 184 187 104 222 194 217 225 218 98 85 99 91 101 225 98 99 95 99 202 120 85 165 99 89 101 99
221 217 220 212 207 219 225 222 215 220 221 222 226 219 206 211 185 209 207 213 173 122 195 204 124 68 139 124 116 92 89 95 98 99 140 198 144 120 191 88 121 97 145
207 210 216 215 227 218 216 210 211 208 208 217 223 214 213 214 171 207 202 199 215 219 212 226 252 217 218 117 94 153 163 215 92 221 222 228 197 220 129 89 182 189 158
219 211 215 215 216 210 206 205 213 202 207 210 214 219 222 218 223 215 206 186 232 229 254 226 200 234 237 231 108 182 218 221 187 212 238 232 85 97 96 221 204 144 194
222 213 214 209 221 211 219 210 212 205 209 196 201 224 222 216 205 199 202 183 198 199 104 196 222 239 229 227 238 226 210 206 221 101 221 174 242 234 219 220 225 203 206
224 221 214 73 216 219 213 200 203 210 212 214 215 240 225 220 214 219 213 186 227 194 209 226 234 129 230 226 233 240 239 220 207 217 218 223 236 163 233 230 220 165 219
228 228 227 217 216 219 220 218 218 221 223 210 216 249 226 221 217 216 221 213 210 221 226 233 108 244 238 237 251 244 231 268 264 214 213 206 218 226 226 231 124 223 223
233 233 233 232 165 236 236 226 223 215 213 219 221 225 227 220 220 215 217 203 215 212 220 231 233 242 120 232 235 239 259 250 267 256 252 251 205 209 224 221 221 230 227
208 87 92 99 242 239 233 230 240 236 238 245 233 261 242 186 218 215 203 220 203 210 226 236 238 240 243 238 226 234 236 265 266 255 252 250 249 243 240 235 226 227 233
103 126 230 80 123 106 178 271 266 268 276 276 276 265 250 227 212 216 206 210 211 83 222 233 235 234 242 233 226 219 224 251 254 254 257 250 243 241 240 240 238 228 230
243 147 122 118 119 127 251 256 252 262 277 272 264 258 241 229 207 209 212 213 220 225 226 234 233 235 237 230 226 226 226 250 243 233 244 253 252 252 254 249 240 237 228
114 315 90 98 95 308 383 427 396 303 258 266 248 252 243 239 232 224 218 217 229 226 235 237 233 227 233 224 221 215 216 246 237 236 241 248 248 251 256 263 251 245 245
312 244 310 323 327 278 358 118 136 354 245 256 263 239 250 247 238 233 233 224 222 229 233 206 221 229 227 223 215 220 243 240 236 237 239 242 241 247 255 261 263 263 247
318 317 321 318 391 280 131 226 345 341 303 242 263 254 240 233 191 226 226 242 227 217 220 218 218 228 227 213 221 240 229 233 237 236 238 241 254 260 261 260 255 252 241
336 321 320 387 345 334 327 315 322 328 350 227 222 142 242 244 246 252 231 217 210 214 218 219 228 148 203 199 230 230 228 232 240 243 246 256 255 251 245 242 241 236 224
366 407 402 363 316 333 312 310 303 285 336 322 228 240 236 248 236 211 212 209 220 151 221 175 205 241 191 205 225 225 229 236 240 248 251 245 238 234 231 228 224 230 240
428 399 392 350 319 319 315 300 314 319 345 293 177 202 229 218 212 213 214 170 167 231 229 223 217 209 214 224 218 233 243 245 257 241 229 226 224 226 229 233 234 225 202
292 298 338 341 338 331 327 328 331 296 275 250 212 214 220 218 216 218 230 239 235 233 228 214 216 220 201 217 234 243 245 235 225 218 217 223 227 232 205 197 201 202 208
263 275 283 283 280 280 281 281 275 265 257 226 219 220 221 221 244 237 228 229 243 232 218 208 199 221 232 237 238 244 216 213 221 227 223 225 192 193 202 178 198 214 222
249 253 256 257 257 258 265 266 267 267 269 266 247 247 245 237 237 226 218 212 225 219 216 219 229 233 232 236 212 216 220 222 223 218 192 194 204 210 214 223 284 272 263
235 238 239 240 247 248 245 246 247 246 246 236 231 234 232 227 215 200 199 214 220 229 219 192 232 241 210 215 216 212 192 189 190 200 203 212 237 278 271 260 215 222 244
238 232 229 232 236 235 239 240 235 239 240 238 227 229 196 223 214 223 222 245 239 237 231 216 206 214 214 196 182 183 198 200 203 259 229 264 256 248 211 231 230 239 242
255 239 224 239 255 233 230 231 231 200 210 203 182 218 216 218 226 240 245 229 220 210 215 187 182 185 186 183 194 226 268 266 257 251 242 227 215 221 233 231 240 254 424
228 235 248 252 242 240 233 228 229 245 245 239 240 243 243 232 208 204 205 209 215 184 184 184 188 192 222 238 267 254 248 239 232 227 215 190 220 231 245 280 561 418 405
234 235 235 244 249 241 231 241 273 224 226 211 212 211 208 209 212 214 205 194 182 189 199 213 226 236 263 250 239 230 224 221 225 181 216 225 248 304 459 545 466 413 383
208 193 192 192 202 207 209 209 210 211 210 209 211 211 209 203 200 214 221 208 213 217 228 235 252 254 232 223 217 220 217 218 205 211 248 319 472 549 521 446 401 371 343

GFSMW_2pvu_pres_042.txt.gz
Presure
186 209 191 201 209 202 193 185 210 197 203 203 191 195 211 213 209 202 207 210 216 208 207 236 214 201 202 193 216 203 100 109 87 104 93 98 97 96 99 93 99 111 226
207 200 200 193 186 209 210 204 201 212 225 224 221 216 221 224 215 215 212 142 214 211 211 185 199 169 212 223 187 202 152 102 110 93 102 102 133 100 89 86 122 224 207
192 196 201 209 203 204 203 209 214 218 212 212 226 219 222 214 227 215 210 205 216 208 204 214 211 141 163 162 192 155 225 238 178 177 146 96 89 155 99 206 240 231 213
207 207 206 202 200 201 203 222 227 224 209 209 212 218 225 204 184 193 196 209 209 210 208 201 197 191 203 202 217 188 193 123 133 235 146 190 183 222 210 212 199 193 237
207 207 208 210 211 214 219 217 218 217 218 215 210 211 218 215 217 221 194 200 198 222 205 219 220 122 84 91 206 171 216 235 246 254 132 158 225 277 267 220 199 207 216
210 208 209 209 219 228 147 220 224 227 225 224 215 211 216 215 216 218 205 207 206 204 224 212 199 203 224 221 208 215 224 233 241 252 243 235 247 267 269 260 257 230 215
231 238 235 232 231 229 231 233 232 232 231 221 219 217 209 211 212 209 203 208 208 204 229 215 170 207 219 206 205 199 222 240 241 247 150 231 234 260 264 261 261 254 251
251 245 239 238 238 240 244 244 243 238 231 232 236 230 203 207 214 208 208 209 202 204 231 213 213 212 212 203 209 189 208 232 242 229 238 229 227 227 223 257 255 260 257
251 247 240 238 142 220 103 217 229 239 244 244 241 243 243 220 214 213 207 207 203 208 206 228 215 186 211 214 200 210 222 230 239 243 233 230 229 225 224 237 248 241 241
280 276 273 269 266 175 255 238 220 216 250 255 257 253 257 252 245 228 212 212 214 220 212 235 217 213 206 200 189 215 220 234 238 240 228 235 225 230 242 249 255 245 241
253 137 125 248 247 249 119 162 261 192 219 260 203 260 249 247 239 225 224 237 250 243 241 228 221 213 200 209 207 225 230 239 230 223 232 230 228 224 255 247 241 240 240
258 276 276 271 269 278 277 276 104 132 129 140 191 246 257 241 264 271 268 264 252 246 237 229 215 200 211 203 225 226 234 212 229 232 232 222 227 246 234 237 239 246 245
280 295 291 323 364 313 164 302 303 238 136 182 328 313 293 300 275 236 250 254 248 238 229 231 219 211 210 227 223 228 219 220 225 238 222 216 236 224 230 238 243 248 263
270 269 409 358 343 336 327 318 311 317 357 401 446 414 330 163 291 226 258 249 246 236 234 230 228 222 216 226 213 186 176 195 232 229 201 201 221 227 243 254 256 254 245
300 424 420 349 328 320 319 321 332 372 396 317 330 361 157 365 283 160 253 167 203 238 235 222 218 217 236 209 208 215 223 229 229 209 229 210 229 238 257 249 231 223 224
311 431 89 412 428 357 376 361 356 352 318 316 336 332 316 292 127 249 248 235 229 228 230 229 234 214 143 208 216 226 232 245 210 243 212 221 248 258 224 220 227 229 225
289 368 357 344 340 330 325 302 299 305 305 304 318 299 301 222 248 254 245 212 238 239 237 204 203 210 210 219 225 242 222 221 236 229 220 249 224 226 227 221 219 211 199
269 283 300 329 326 303 300 300 300 308 304 307 291 285 221 206 231 236 235 237 218 209 208 209 211 217 226 239 236 205 227 208 223 244 228 239 219 215 207 195 197 215 241
244 259 269 277 284 288 289 293 298 302 299 292 272 236 219 217 216 219 219 217 215 213 215 216 239 243 229 210 211 233 235 236 224 218 209 206 200 202 199 231 270 269 251
238 239 245 256 259 263 266 268 267 264 257 247 227 220 211 195 203 211 207 213 222 234 241 237 228 227 224 234 224 231 220 205 205 216 214 194 203 241 279 263 239 231 228
234 237 237 246 245 246 248 246 241 235 234 228 221 216 207 200 214 215 219 236 236 234 216 210 215 235 238 235 229 203 198 198 191 201 215 245 273 257 232 227 227 208 204
236 236 225 234 237 243 244 244 241 247 238 233 229 223 219 230 244 253 240 234 220 212 222 224 242 232 218 197 198 195 192 211 231 237 255 247 225 222 224 217 230 229 242
246 226 239 248 245 235 242 229 240 239 240 237 260 229 223 223 225 217 225 226 228 232 250 244 209 194 188 185 202 218 227 236 245 242 221 218 219 223 228 229 248 355 545
251 252 248 246 251 237 232 231 245 223 236 222 240 230 225 230 238 231 226 234 210 197 196 187 198 210 209 224 234 233 240 240 218 216 218 222 223 234 249 320 537 537 472
214 215 244 209 233 237 224 223 230 230 228 233 229 236 234 235 224 213 206 196 209 217 209 203 222 233 235 237 246 231 215 213 216 217 217 225 243 278 379 557 484 427 380
201 201 202 202 203 213 215 217 218 216 217 218 215 213 210 217 223 223 215 203 198 225 234 244 253 262 234 214 213 210 215 210 206 218 235 265 321 364 493 415 370 351 336

GFSMW_2pvu_pres_045.txt.gz
Presure
181 186 194 176 172 173 176 180 182 176 185 190 196 215 205 217 195 194 197 187 221 212 216 215 211 207 204 201 221 204 215 211 111 97 103 100 201 103 101 108 99 84 101
184 191 197 181 190 193 200 197 198 206 190 201 207 205 205 193 204 209 205 228 221 224 220 217 214 210 215 213 218 214 207 218 223 221 196 222 166 216 216 193 107 110 81
202 203 206 209 186 189 205 203 201 200 209 213 200 204 213 204 198 198 221 214 199 210 218 220 212 205 213 215 210 214 217 151 98 98 150 226 103 202 191 190 128 245 118
207 202 199 201 201 202 202 202 204 205 211 213 213 204 207 207 203 207 207 214 215 202 212 207 212 191 210 196 195 201 228 220 227 213 224 209 221 224 170 261 223 259 123
206 209 210 210 208 211 210 212 207 202 203 212 212 208 210 203 213 227 213 212 183 205 208 208 192 189 191 191 202 201 202 217 216 196 211 229 209 212 209 249 252 100 244
204 199 199 203 204 207 211 210 208 207 135 212 211 211 212 217 212 232 217 212 222 214 198 213 213 196 212 203 198 203 201 226 221 213 211 210 208 212 206 231 241 240 236
206 207 209 209 211 212 214 214 214 213 212 214 214 216 239 231 227 218 221 208 220 218 216 208 204 208 209 153 202 206 211 217 224 216 214 214 208 206 214 223 241 236 232
214 214 216 216 217 217 217 220 223 225 241 241 239 239 239 241 237 233 232 227 222 198 204 192 195 191 206 206 205 205 203 210 216 216 206 149 197 210 218 230 241 239 232
231 248 253 254 251 248 256 257 256 254 250 249 250 249 254 249 248 240 239 235 225 217 224 221 212 201 204 205 198 202 197 201 207 222 215 202 202 199 217 235 237 234 240
252 211 248 94 238 250 251 250 95 257 258 263 266 261 246 246 249 249 232 231 239 236 167 225 220 221 207 203 206 206 211 215 211 223 213 209 208 206 223 197 206 236 245
249 250 144 273 275 120 225 271 274 151 270 269 268 267 266 266 263 260 248 239 234 237 237 236 237 233 219 220 200 203 206 211 229 217 209 207 206 217 227 233 222 237 229
266 255 259 260 81 295 151 93 281 274 275 111 102 255 258 125 127 254 136 258 258 253 238 208 218 222 221 207 208 241 237 229 223 216 197 205 211 225 251 226 231 234 218
266 268 263 285 298 303 301 302 301 295 290 284 130 277 232 152 269 138 164 268 278 236 257 254 258 256 255 244 242 238 229 227 218 212 194 230 225 237 224 236 237 210 247
275 266 263 338 392 462 276 345 274 265 262 262 263 263 265 185 271 136 278 271 282 137 282 259 244 215 247 243 236 227 224 193 217 230 175 227 243 219 226 239 220 244 238
245 258 306 375 360 418 383 372 353 339 331 333 333 330 322 324 289 288 292 300 285 283 285 158 238 236 241 232 211 210 227 219 219 213 226 230 220 224 236 214 227 226 246
250 254 295 321 355 353 364 355 342 332 322 324 323 332 361 362 377 382 467 339 134 280 271 260 236 242 234 231 227 223 217 217 228 226 217 225 221 237 219 226 243 246 229
231 256 282 317 318 312 314 314 316 320 321 325 328 328 302 304 332 329 317 290 160 271 275 228 249 233 223 221 221 225 229 237 218 219 230 237 239 218 237 238 229 213 227
241 253 269 276 295 317 312 312 310 309 295 290 289 290 282 283 278 281 292 289 236 235 238 232 224 225 227 235 238 235 214 219 227 231 224 215 220 229 222 215 215 183 206
226 235 248 266 272 278 291 301 277 282 289 279 278 276 247 231 228 242 246 245 241 238 229 245 241 240 227 217 214 221 228 245 220 224 227 233 234 211 204 188 235 238 241
238 233 246 253 260 269 262 262 266 267 262 247 234 228 224 216 213 206 234 228 230 229 229 222 227 221 222 223 234 234 214 223 244 231 223 205 200 188 227 238 235 225 222
240 240 225 239 238 255 262 258 246 246 241 235 234 228 229 215 219 210 205 204 217 211 211 217 234 257 242 234 224 230 232 204 211 204 199 218 233 241 237 223 220 221 223
254 244 225 231 230 237 230 250 239 234 237 217 223 227 227 221 219 215 215 216 231 238 235 224 224 220 226 229 219 203 199 204 208 224 239 242 244 219 210 211 220 218 228
241 244 242 234 238 233 224 244 228 244 241 237 234 247 232 235 228 238 232 232 222 216 218 221 223 205 204 198 211 211 217 233 241 247 218 215 168 216 219 213 223 229 241
223 236 236 249 255 253 232 220 249 220 242 227 216 215 214 221 223 227 229 231 230 213 215 200 197 208 206 212 234 244 249 217 213 208 174 214 215 207 217 225 238 261 368
213 219 202 201 200 200 209 230 238 230 231 215 213 225 218 218 209 204 210 215 217 213 209 205 213 233 242 240 215 210 209 206 200 200 213 222 215 224 241 310 406 420 385
220 203 203 205 216 218 221 224 224 227 226 224 219 216 214 217 217 215 210 202 206 227 239 245 237 222 210 207 210 207 212 203 207 208 207 220 229 319 385 458 409 374 342

GFSMW_2pvu_pres_048.txt.gz
Presure
169 175 177 164 167 167 169 172 173 173 166 168 172 173 174 178 174 184 218 197 200 195 212 206 188 196 198 207 223 232 221 219 219 218 218 218 232 224 219 223 221 111 223
170 175 174 169 167 169 172 176 173 181 186 183 189 189 198 198 205 191 203 202 202 205 204 196 210 195 208 210 227 209 223 215 219 220 214 193 195 205 216 229 221 220 95
172 174 177 179 179 179 178 182 188 192 213 201 207 203 205 214 202 208 210 204 205 202 203 201 205 205 219 222 204 203 205 202 208 208 191 196 201 226 211 190 229 221 214
187 197 205 202 201 208 183 202 211 207 211 213 209 206 199 196 200 209 211 208 197 200 208 217 199 193 195 198 201 206 205 207 212 209 206 200 224 210 208 215 232 233 224
217 220 214 208 204 206 212 213 204 209 205 213 210 207 209 207 204 207 207 208 204 206 208 211 200 211 224 223 220 194 214 204 203 214 214 221 219 202 208 201 205 226 219
209 208 209 214 219 217 211 203 207 211 211 210 208 202 203 202 204 203 203 206 209 203 202 203 206 214 219 213 205 208 204 213 211 207 211 205 209 210 203 206 211 205 225
214 216 211 217 209 212 218 202 205 204 204 209 211 211 211 214 213 206 205 204 208 210 210 223 240 226 228 229 226 224 211 208 203 197 192 202 203 204 200 203 209 212 216
208 200 202 203 204 205 205 209 213 206 204 210 210 211 219 219 219 217 218 218 220 222 233 232 235 247 219 230 223 218 219 211 207 206 201 205 202 189 200 207 208 216 210
215 218 219 212 210 213 215 219 221 224 226 225 227 233 231 231 239 259 259 251 248 245 234 233 235 230 221 216 219 223 222 212 206 208 208 206 205 203 206 203 206 204 220
235 236 231 238 217 232 237 240 258 228 265 267 268 266 264 264 262 256 253 248 241 239 236 232 232 227 223 204 222 213 219 217 212 214 209 215 212 215 221 204 217 218 228
253 250 249 254 256 256 217 258 220 279 288 287 230 239 227 291 142 249 284 276 120 263 262 256 248 244 238 239 241 228 220 221 221 218 219 223 220 222 221 203 231 225 230
238 240 244 242 243 259 288 100 279 279 279 291 290 109 298 277 270 114 259 252 256 255 132 228 253 247 246 240 244 233 215 215 212 218 216 199 208 207 212 231 227 225 221
252 254 270 118 268 251 264 275 292 341 342 300 307 301 294 295 294 284 168 274 212 240 257 249 147 151 174 220 231 225 232 238 233 225 236 238 238 228 232 228 225 230 224
275 269 246 255 275 279 284 324 415 410 426 401 328 334 306 300 302 287 286 218 278 272 265 259 171 249 252 213 207 244 236 256 238 237 243 242 230 232 227 225 227 232 232
244 258 271 269 261 263 350 336 355 364 353 360 361 372 383 375 286 262 259 251 257 256 253 255 259 226 229 138 266 277 256 241 251 233 237 231 229 227 228 228 235 220 239
255 246 265 250 246 295 339 325 334 202 373 353 333 335 334 335 336 333 334 345 349 279 270 264 255 253 246 241 273 270 247 238 219 234 235 227 228 228 225 230 217 219 228
234 264 247 241 263 290 291 334 301 314 321 318 291 296 301 296 301 319 326 374 351 316 296 293 281 287 268 261 265 263 241 226 230 235 234 229 228 230 231 231 231 217 228
235 254 245 240 249 267 290 285 302 295 291 281 281 291 292 290 297 290 281 279 311 342 345 327 293 273 260 255 256 228 228 237 236 229 222 224 240 217 230 216 224 241 219
235 252 247 237 240 259 263 270 275 274 269 269 266 265 263 263 263 266 279 256 263 262 261 259 256 239 234 232 230 234 233 233 231 240 225 227 235 227 235 215 206 209 228
234 248 248 228 240 235 245 264 247 245 247 246 248 244 242 241 243 243 241 240 241 239 241 240 239 236 225 225 212 241 246 242 236 217 219 229 226 211 212 215 234 242 237
236 241 255 233 248 236 240 247 247 241 212 232 234 234 231 224 216 219 214 207 219 215 215 215 209 220 214 230 239 222 224 223 224 218 213 215 220 234 239 239 223 218 191
229 236 254 238 252 226 231 248 241 238 232 228 219 217 217 221 219 221 223 229 226 222 229 227 226 227 222 222 221 217 212 210 217 210 230 237 239 225 215 216 213 211 218
229 227 234 242 258 239 242 231 230 228 248 210 261 240 247 238 236 226 225 231 233 228 226 228 228 211 207 209 211 208 214 219 235 239 227 215 212 221 217 209 216 224 227
247 226 207 201 203 198 228 202 205 208 239 253 236 232 223 225 224 206 202 207 209 211 210 210 211 211 213 211 226 237 238 228 220 214 216 221 221 207 216 218 224 226 238
230 226 212 202 195 196 205 211 214 214 227 226 219 216 214 213 210 208 210 213 214 213 209 203 205 221 238 233 226 220 217 215 217 220 222 225 213 221 228 238 233 358 445
220 226 216 212 218 219 221 225 225 224 225 223 221 220 216 215 201 201 201 208 220 230 236 238 235 229 225 221 209 211 216 212 205 201 215 233 246 225 239 454 452 416 390

GFSMW_2pvu_pres_051.txt.gz
Presure
185 188 183 184 184 186 187 187 183 189 187 182 177 172 170 169 168 171 173 179 177 187 192 208 210 209 201 202 202 204 199 202 132 202 202 212 210 215 216 216 211 195 192
163 167 170 173 177 180 181 183 190 191 180 177 173 173 171 172 172 179 180 187 198 206 208 207 205 199 195 205 201 193 197 199 201 209 205 209 223 219 213 216 205 214 219
176 170 169 172 174 173 171 172 176 175 172 173 177 181 180 179 177 184 200 205 213 206 208 205 204 203 204 204 203 204 199 204 207 200 199 227 217 221 217 219 220 208 212
193 196 206 206 169 172 171 168 177 178 171 180 180 186 194 204 209 207 206 215 203 209 208 207 194 196 196 200 199 202 201 199 198 205 207 224 219 202 213 218 212 217 211
216 226 199 184 208 227 225 182 184 188 183 177 183 213 214 206 203 211 209 201 206 208 203 202 202 204 201 200 204 201 202 203 201 214 213 219 225 216 210 208 210 209 203
206 210 221 215 221 217 215 178 188 184 203 213 216 212 209 217 216 210 209 205 204 208 210 207 202 206 207 201 201 207 203 204 211 202 237 235 213 221 223 205 192 205 204
205 227 180 218 217 219 221 223 223 221 216 212 211 214 211 212 199 202 207 203 207 205 207 211 207 205 205 205 206 201 200 199 230 225 235 223 225 220 214 220 216 213 213
182 223 222 215 218 212 209 210 184 194 197 215 210 205 210 208 211 214 214 215 212 214 217 218 220 220 214 214 211 215 236 228 225 220 224 221 225 211 208 211 210 209 206
209 206 201 214 194 193 195 201 205 210 213 217 208 222 225 228 224 216 219 225 223 219 215 214 202 211 235 240 237 236 230 225 233 235 229 220 212 209 209 207 216 213 217
220 218 216 212 214 215 138 219 226 230 230 175 240 240 249 253 249 250 247 194 259 209 249 147 241 239 243 193 237 231 227 224 201 208 217 217 215 211 214 216 219 220 220
231 226 225 228 228 226 246 261 271 267 266 269 227 267 272 275 278 281 161 274 280 183 259 251 247 239 158 243 174 124 168 237 231 236 236 231 223 223 207 220 224 220 218
258 268 270 265 258 258 259 252 270 274 283 102 294 288 284 287 288 286 287 286 279 275 282 286 276 261 268 175 205 251 252 204 170 248 241 240 239 238 233 227 224 221 221
254 248 252 253 255 263 277 276 283 271 274 296 297 320 348 430 432 340 302 289 279 283 291 273 260 270 250 243 239 233 214 228 227 228 229 227 224 221 220 220 230 231 237
256 253 249 274 277 275 257 255 267 280 314 351 370 405 374 400 390 406 431 362 312 294 269 270 284 280 263 252 250 242 236 230 239 233 224 156 241 242 246 215 238 253 237
243 268 275 255 259 249 265 270 282 374 355 352 389 360 339 342 351 363 380 405 365 325 302 288 275 273 266 266 258 251 245 248 243 245 241 245 256 134 250 227 238 219 234
278 250 253 244 243 256 260 265 264 328 293 304 306 305 313 321 328 330 330 335 350 391 334 320 301 274 287 249 250 252 244 237 135 251 228 134 183 276 262 252 244 226 233
246 243 244 249 248 260 246 267 259 238 302 276 284 311 313 302 292 293 297 296 338 344 331 336 349 326 265 252 238 240 239 239 188 178 161 224 262 252 244 236 231 201 211
237 236 240 238 258 248 238 249 264 246 227 227 272 278 277 280 281 280 279 277 291 308 312 309 303 284 275 306 290 284 276 264 262 264 257 252 251 233 210 211 228 238 233
225 228 230 238 244 246 234 252 239 232 229 231 222 233 241 217 266 270 267 267 270 265 274 287 300 279 277 282 272 257 251 258 250 241 235 236 246 243 246 235 229 235 226
225 227 231 244 249 227 249 228 248 238 217 221 224 229 225 225 229 221 222 215 225 236 239 225 226 223 251 241 229 224 214 211 212 219 229 224 228 229 226 223 213 209 217
236 224 241 243 249 238 249 231 239 246 249 236 232 235 249 230 220 225 241 243 244 244 234 231 237 227 221 235 234 231 225 223 228 222 217 217 214 213 223 226 235 247 239
235 234 229 232 242 250 241 236 235 237 234 214 241 235 232 235 242 238 243 234 229 228 226 225 224 220 222 227 223 218 216 215 213 210 210 213 229 238 240 235 223 225 220
239 239 245 219 242 210 206 207 197 198 245 240 211 207 207 215 221 213 217 208 207 211 209 215 216 214 215 213 214 212 213 216 234 235 233 230 179 152 219 224 212 220 228
249 231 235 216 212 205 201 202 213 220 263 233 228 224 221 219 220 217 215 212 211 208 206 204 208 210 233 235 236 233 231 229 226 223 218 162 214 213 216 192 221 233 248
241 238 229 225 212 204 204 213 218 225 225 222 214 217 221 222 204 197 199 199 221 231 234 232 228 231 230 229 228 227 223 219 216 206 205 205 230 220 250 249 240 231 357
244 219 217 222 225 229 224 228 222 225 229 231 226 224 201 196 220 216 203 209 229 228 227 228 227 227 227 231 245 246 243 242 230 236 235 225 238 234 307 381 363 341 331

GFSMW_2pvu_pres_054.txt.gz
Presure
168 169 169 168 166 168 168 77 145 171 178 178 180 190 190 194 194 193 195 195 200 198 174 177 174 177 178 186 208 197 208 198 199 209 197 201 198 201 200 206 208 198 220
176 176 176 175 178 178 179 179 180 174 183 189 183 177 181 182 182 179 174 178 179 174 175 176 181 183 211 209 197 211 204 202 206 194 204 199 200 206 197 207 203 197 215
180 179 180 171 169 171 170 172 191 183 173 171 177 173 173 176 173 170 166 175 180 182 183 184 180 210 206 205 208 202 202 201 204 204 203 198 202 200 203 202 203 204 216
177 176 181 184 181 180 179 178 180 181 181 179 180 180 189 201 216 187 194 180 191 178 178 185 211 204 205 210 203 203 202 204 202 200 195 199 200 203 207 203 202 213 218
160 155 164 158 175 178 186 188 180 182 186 190 190 186 221 193 194 224 223 215 176 195 208 212 206 209 208 204 197 207 199 200 196 206 202 202 201 204 206 206 207 223 218
196 198 194 193 192 191 190 194 199 208 230 222 219 227 221 216 217 214 213 215 218 219 212 210 214 203 198 201 203 199 198 202 201 200 206 206 207 200 202 215 224 226 218
211 211 206 203 208 185 233 173 179 184 220 171 203 208 220 214 215 215 191 196 202 191 194 209 209 208 208 209 207 198 201 201 200 202 198 202 205 207 224 204 230 220 229
182 170 219 190 187 189 224 224 219 219 223 188 223 225 222 221 218 218 212 209 209 206 210 207 206 207 212 211 214 212 210 208 204 205 203 212 219 219 222 220 215 218 230
199 194 183 186 214 179 186 207 214 211 223 217 197 213 212 214 215 217 220 217 90 220 222 223 207 219 219 221 218 216 219 221 221 226 161 228 229 229 220 224 220 228 215
218 224 219 217 222 225 225 215 219 215 227 222 222 226 231 233 233 236 236 239 242 255 91 266 263 260 164 252 249 249 246 243 147 237 235 189 152 158 218 219 143 225 226
219 227 220 219 217 220 219 227 226 231 231 147 237 251 115 282 296 295 297 305 304 301 285 271 265 255 250 248 246 243 122 236 235 236 234 229 213 220 159 132 229 229 224
221 219 225 232 225 229 226 234 233 235 263 276 285 308 292 282 283 290 296 296 292 293 294 291 288 283 280 271 264 258 252 250 204 252 248 190 237 232 238 236 231 234 237
219 216 219 227 232 236 248 252 270 270 275 285 273 267 296 325 418 435 388 385 399 407 346 310 305 289 276 271 258 258 255 252 254 253 254 246 233 236 237 229 231 204 153
256 256 258 268 266 267 261 266 264 283 267 256 297 349 357 339 364 351 342 364 371 367 371 384 419 430 323 279 267 255 251 253 251 239 235 239 241 229 230 150 176 227 166
257 258 253 247 258 265 258 284 261 253 254 281 274 245 253 329 318 313 310 327 334 332 345 345 353 389 360 324 276 261 253 243 253 261 248 240 234 223 217 228 154 240 239
249 258 259 259 257 279 259 250 259 260 261 266 250 246 240 259 295 299 317 309 322 331 314 330 370 352 350 314 313 282 261 272 262 253 256 251 247 243 243 243 162 236 222
248 256 256 285 254 250 242 247 254 252 257 250 239 237 238 235 219 254 277 286 300 318 316 314 316 362 342 308 303 300 276 262 269 271 248 244 241 235 241 251 229 230 245
265 284 255 242 234 236 248 237 240 242 245 253 242 232 231 219 221 221 228 219 253 258 354 310 304 321 305 328 299 268 240 249 241 238 245 238 236 260 271 266 266 262 253
260 243 240 229 237 236 236 243 257 252 229 242 238 240 233 251 244 223 254 236 223 244 234 242 248 260 291 281 286 293 302 306 290 275 271 266 260 241 218 215 227 228 229
229 248 232 232 233 231 246 244 244 244 244 237 249 253 257 246 247 239 244 230 241 248 246 219 245 247 229 229 237 234 231 226 227 215 218 225 230 229 223 218 223 222 217
242 238 233 242 250 238 235 250 245 229 237 232 243 239 239 246 232 231 229 231 232 233 228 227 226 225 226 225 224 222 222 220 219 214 218 217 217 216 221 233 235 234 236
230 230 236 236 236 237 236 243 260 260 257 254 249 229 221 211 228 225 227 232 226 219 218 216 220 218 226 221 227 237 228 235 232 231 232 230 229 228 227 228 226 214 205
228 224 226 243 244 237 221 209 202 201 214 213 267 229 229 224 222 226 229 203 203 205 210 229 235 234 230 230 230 228 226 223 221 223 224 224 224 221 220 223 240 163 242
225 230 240 236 232 234 239 208 204 204 218 223 228 227 223 218 221 208 196 217 221 221 220 229 229 227 227 224 220 219 221 225 230 239 239 240 241 227 225 181 217 211 233
214 237 232 225 200 230 229 218 215 213 221 225 227 225 228 225 226 199 207 217 207 225 233 229 229 230 226 223 225 225 225 226 225 227 227 223 200 148 221 219 247 279 323
226 231 240 234 241 220 219 226 221 223 229 226 227 226 228 226 228 208 209 207 212 220 227 226 225 229 232 224 221 223 222 220 223 227 168 147 224 283 309 275 276 276 315

GFSMW_2pvu_pres_057.txt.gz
Presure
157 152 151 153 159 159 160 159 151 157 162 162 159 156 171 173 171 173 173 171 184 187 191 172 176 173 173 172 170 166 178 175 183 179 194 199 204 205 203 201 202 198 196
162 153 165 163 164 164 165 166 161 150 166 168 168 170 177 178 180 185 183 176 188 176 173 176 179 184 196 200 192 195 209 214 182 194 208 202 204 204 200 198 198 199 200
169 166 165 167 165 162 162 162 166 171 178 178 182 180 177 173 179 182 182 182 187 191 186 193 195 203 226 225 220 217 216 205 208 209 205 201 199 189 189 199 199 198 200
178 176 176 177 177 178 173 173 176 179 177 175 179 188 191 196 196 200 195 194 191 202 210 227 226 227 225 221 215 209 212 213 211 209 204 204 196 199 199 200 195 199 197
176 160 150 151 164 139 140 142 145 168 182 187 196 177 174 154 186 191 192 182 210 236 221 180 201 186 212 188 213 214 189 205 178 191 200 203 204 199 201 200 201 197 197
183 158 180 172 163 170 176 175 173 178 180 153 170 189 192 189 196 195 231 237 226 186 234 227 223 201 224 222 215 213 212 205 204 204 203 203 201 198 198 199 198 200 201
190 162 181 184 179 174 178 181 186 187 188 187 189 188 204 205 202 207 176 228 220 224 226 204 212 206 208 211 212 210 210 209 210 209 206 202 201 200 196 199 200 199 204
183 183 184 185 188 189 188 185 187 192 197 196 208 212 213 219 187 178 188 202 220 217 221 220 218 219 224 223 222 220 216 208 207 212 210 212 212 210 207 209 209 213 222
201 195 194 191 188 195 195 192 197 177 174 178 182 211 186 180 174 215 222 226 230 232 235 241 237 234 234 235 232 233 232 228 227 219 221 235 235 233 232 232 226 226 169
192 199 156 205 205 206 206 183 199 202 204 205 200 196 207 219 223 235 229 187 245 242 261 115 287 193 280 277 270 261 259 257 249 246 245 247 239 238 233 227 222 228 202
225 229 231 213 183 227 226 222 224 233 197 224 219 223 236 131 233 185 248 297 277 311 304 300 295 300 292 288 285 277 264 255 250 248 244 240 237 235 232 230 207 211 212
237 235 226 219 229 231 235 229 222 224 216 222 231 223 237 234 240 297 294 278 273 358 388 370 384 400 386 355 299 278 275 279 276 265 254 248 242 234 229 227 227 227 229
221 223 228 229 233 234 225 224 231 228 233 224 231 233 241 283 289 275 285 247 250 334 247 350 337 374 376 377 397 389 353 283 272 262 255 259 257 258 255 251 250 251 250
232 137 228 236 236 233 231 232 155 225 229 229 249 287 275 280 286 274 249 259 248 285 278 351 331 340 345 355 337 404 449 388 310 264 262 258 248 247 243 244 241 244 242
237 235 231 229 230 230 233 237 253 203 268 280 290 265 265 264 270 257 253 225 227 233 361 329 323 328 351 373 336 376 360 339 368 326 297 257 254 252 248 244 238 252 253
242 250 259 251 254 260 260 265 265 272 280 273 258 257 254 265 266 249 242 237 239 268 225 238 325 320 348 331 332 338 324 294 305 355 288 273 246 247 241 241 251 241 251
245 240 253 256 255 265 266 262 257 270 261 250 250 248 260 262 251 228 265 263 262 225 264 226 249 276 310 321 305 296 302 310 316 291 281 270 247 242 240 253 253 251 245
250 246 251 251 258 252 245 268 256 252 249 241 241 260 258 254 251 261 254 245 238 241 256 251 258 233 256 264 283 296 297 295 291 286 281 276 271 258 257 256 267 276 265
248 257 260 260 277 274 256 255 246 244 236 244 243 262 258 248 254 222 227 237 233 227 223 219 222 240 243 246 238 245 248 250 247 255 266 268 301 302 239 236 228 226 230
262 256 266 270 261 244 242 233 234 246 236 235 256 256 242 245 258 245 228 215 225 238 232 220 222 241 244 242 233 231 243 233 223 236 233 217 223 219 220 221 223 218 232
258 261 262 240 246 235 239 229 235 258 243 243 260 232 245 251 244 215 232 223 238 212 225 229 220 231 243 241 241 241 240 237 233 234 231 230 229 229 229 227 227 231 228
256 248 229 228 237 234 243 237 250 242 238 245 267 225 211 250 223 235 226 225 210 203 207 206 235 232 234 230 232 230 225 224 224 224 227 229 233 234 233 230 230 233 233
227 217 234 236 236 225 232 235 247 243 217 203 204 202 221 226 233 232 230 229 216 203 230 214 230 232 229 229 229 227 226 223 220 219 218 216 221 224 226 224 223 218 216
227 236 233 233 227 234 240 234 245 228 241 205 203 204 221 225 228 228 235 226 216 206 219 212 215 223 220 225 227 227 223 219 218 225 226 227 224 227 224 218 223 152 318
237 233 236 229 227 228 245 233 252 235 231 230 224 222 220 226 227 228 232 230 221 210 221 213 215 221 214 221 229 226 228 230 225 222 223 228 228 232 180 208 215 318 296
237 226 243 226 227 235 239 230 279 236 221 217 240 235 231 231 229 227 231 242 227 212 208 210 207 219 227 218 217 223 223 223 222 230 228 232 224 173 232 275 299 316 253

GFSMW_2pvu_pres_060.txt.gz
Presure
155 158 160 153 147 149 151 151 150 148 149 154 153 154 153 153 162 99 156 163 152 166 163 170 181 189 183 191 197 192 191 182 206 235 229 234 224 216 214 207 208 209 210
174 168 159 158 153 151 157 159 161 153 154 157 154 149 156 160 163 161 165 167 164 175 179 180 186 190 200 179 187 198 198 233 237 204 187 210 216 202 210 198 195 204 194
171 164 159 164 169 159 163 162 159 151 157 164 165 162 161 160 161 163 166 173 180 184 186 189 177 182 189 191 200 176 198 222 235 220 218 201 171 216 210 207 200 200 202
169 173 176 169 169 161 162 164 167 162 161 161 159 161 167 167 170 177 183 189 186 181 191 183 169 156 190 205 222 205 196 207 244 220 216 209 208 209 198 209 205 200 201
176 176 170 171 175 176 165 166 167 164 164 173 176 174 173 143 143 136 160 190 158 151 198 187 165 199 221 238 239 230 228 193 198 221 222 219 216 210 207 203 205 208 206
180 183 185 174 176 179 178 176 176 174 175 158 159 176 170 177 181 181 182 172 187 171 187 199 194 181 199 204 203 206 233 221 225 226 218 216 215 218 214 209 210 204 204
188 159 176 178 182 183 180 176 172 176 172 173 142 173 180 187 182 184 158 177 182 192 183 183 175 192 246 221 228 219 230 233 243 245 232 228 223 224 221 221 218 215 212
178 173 173 186 184 186 155 167 173 180 155 166 171 182 177 185 188 188 189 193 196 199 203 207 238 210 232 231 232 243 247 259 258 277 276 271 254 249 249 245 243 238 227
190 182 180 181 177 184 187 184 185 184 179 167 185 177 163 187 188 191 195 199 202 210 198 239 208 218 239 238 258 280 306 296 297 294 281 269 265 248 249 242 247 245 240
201 201 197 190 185 180 178 180 176 176 184 185 189 191 190 193 182 199 204 210 247 234 132 237 233 237 254 297 305 289 282 270 266 275 275 268 273 266 254 249 245 240 236
191 187 188 207 200 195 185 187 187 188 184 183 190 190 187 188 183 186 216 219 232 243 232 239 241 285 280 275 281 274 277 319 341 382 323 291 256 262 259 262 244 243 242
223 220 203 201 203 209 207 198 193 187 193 198 202 233 235 252 243 251 237 243 240 237 239 281 271 267 273 250 261 350 339 341 365 347 349 322 295 294 253 252 261 257 243
229 224 220 217 218 221 219 184 216 215 135 237 227 230 240 249 239 240 233 238 248 277 267 268 263 252 241 265 249 335 252 344 335 345 347 354 335 300 286 272 249 239 252
245 244 238 233 243 244 250 244 254 250 249 190 238 240 238 232 234 243 262 291 267 269 271 264 252 268 256 294 309 359 376 348 339 338 378 377 472 333 309 278 265 245 236
254 251 249 249 254 250 249 246 237 237 240 240 235 233 234 243 276 287 279 275 259 269 264 261 230 258 264 264 282 331 319 315 315 317 313 317 385 358 314 282 293 264 241
244 244 243 240 235 236 234 235 231 227 225 234 243 264 275 277 285 268 263 255 275 265 267 264 247 240 227 222 239 248 292 304 294 290 295 300 307 322 339 299 276 281 271
237 233 236 240 238 240 231 235 237 242 248 252 267 270 268 281 261 253 255 264 268 276 254 250 236 233 231 251 266 247 238 247 274 290 285 279 280 282 279 279 281 277 272
242 237 238 230 229 235 237 236 238 254 257 265 273 273 274 260 242 251 257 266 257 247 237 234 234 224 221 216 253 250 256 235 224 233 243 252 272 274 280 273 274 274 270
232 230 231 231 234 231 242 256 257 264 277 274 259 264 258 251 245 255 258 242 255 248 210 222 220 217 246 240 243 242 246 243 243 240 241 243 247 236 221 219 218 217 227
257 254 250 255 259 248 250 252 268 267 257 257 246 252 250 282 242 261 251 258 258 219 233 232 214 204 218 240 240 238 238 237 231 233 231 232 231 234 232 233 230 228 226
252 256 260 264 275 266 266 264 256 249 244 244 245 243 250 241 248 266 200 250 225 234 231 230 220 204 215 222 228 224 233 237 237 234 229 226 227 227 227 228 228 224 224
251 268 263 249 255 257 251 248 239 239 244 239 256 250 254 233 234 204 209 220 238 235 236 236 225 206 215 222 225 215 218 227 232 233 235 235 230 224 225 229 227 225 225
250 246 249 250 247 240 240 231 235 243 251 232 237 258 246 212 205 205 210 224 225 233 241 235 231 206 218 217 209 215 234 226 224 226 225 226 224 226 231 227 222 233 217
248 250 247 238 236 226 225 229 234 243 240 247 240 244 227 241 213 213 216 222 228 234 238 233 238 209 212 217 211 216 217 213 218 225 223 218 225 229 227 207 217 234 228
247 239 233 226 215 224 229 244 247 240 225 250 237 275 236 229 224 222 232 230 234 232 231 236 234 210 212 211 205 214 212 210 216 221 219 220 224 223 224 231 232 232 244
225 221 225 225 221 238 246 243 240 243 236 233 270 265 243 217 265 239 242 245 243 244 239 238 233 220 216 215 210 217 213 211 215 216 219 223 221 225 229 233 227 236 244

GFSMW_2pvu_pres_063.txt.gz
Presure
152 157 158 150 147 145 149 150 144 147 153 157 153 151 154 152 152 151 154 155 136 155 155 169 171 167 167 170 174 177 189 188 191 194 172 200 191 200 203 229 197 191 218
129 140 126 146 152 155 151 153 150 149 149 150 154 152 150 149 151 156 161 160 168 163 162 165 163 164 169 173 154 184 180 183 159 181 198 193 177 188 247 217 196 227 227
159 157 158 142 160 159 159 159 159 155 156 156 154 155 158 162 155 156 147 168 164 161 161 167 166 155 137 177 169 175 170 182 175 201 165 199 207 249 221 202 233 216 221
170 164 166 166 162 161 160 162 162 161 158 160 160 160 164 158 164 163 161 162 173 176 148 137 154 162 182 171 155 191 177 195 201 180 213 208 244 222 237 232 222 226 224
180 179 171 159 178 179 172 170 170 164 160 160 175 160 161 172 172 171 169 169 156 179 182 171 186 156 188 177 186 180 200 201 183 211 244 244 229 230 232 235 231 234 229
149 178 182 181 179 173 171 170 173 180 179 173 168 174 174 180 184 184 159 182 148 174 162 175 174 192 169 192 201 197 204 211 220 216 189 236 235 245 245 240 244 242 255
188 176 160 166 178 179 180 183 186 181 181 181 175 178 179 185 167 169 155 165 176 158 190 175 183 192 187 199 205 212 204 242 236 256 257 259 271 287 300 270 269 260 251
191 192 187 185 181 183 162 166 155 155 157 163 163 166 177 155 153 179 187 179 188 187 183 177 190 198 190 190 204 205 244 237 261 261 304 306 279 277 245 244 229 244 249
180 187 194 186 183 185 184 179 176 171 172 169 172 173 167 170 180 179 175 177 182 181 184 186 184 193 196 207 248 246 253 250 296 275 286 269 253 257 258 225 248 282 223
184 181 182 183 183 188 186 186 184 175 174 172 171 169 164 176 174 177 176 179 185 189 189 198 199 208 249 241 249 249 294 268 280 274 292 378 353 377 329 325 279 280 270
195 190 188 189 190 185 183 185 186 186 184 183 183 180 184 186 188 188 191 194 178 197 203 204 253 250 250 249 267 268 276 262 267 265 273 387 357 332 309 316 332 292 281
202 198 198 198 193 189 188 194 198 198 195 196 194 192 192 84 194 196 192 202 204 243 250 251 250 248 248 288 279 257 268 261 260 250 263 383 360 345 338 346 336 360 290
244 240 234 206 201 194 195 194 198 199 197 192 187 192 175 187 207 208 222 244 251 242 246 241 250 292 262 262 270 262 263 249 229 279 303 342 346 352 344 330 333 334 328
241 241 239 235 233 231 229 227 213 216 224 224 220 221 231 240 247 252 250 239 242 236 243 284 279 273 262 269 268 268 244 237 250 277 264 261 317 322 344 414 354 365 331
254 238 236 240 245 251 252 251 252 252 254 258 260 260 259 253 245 240 241 235 240 260 288 281 266 254 271 275 262 239 239 222 252 258 266 271 300 312 301 309 334 337 319
262 260 256 237 252 256 268 251 251 258 250 250 254 243 239 241 241 235 243 250 264 293 279 261 250 267 273 259 240 239 240 224 262 255 249 251 267 251 292 290 282 283 286
276 280 263 272 263 257 254 259 249 246 245 241 238 241 243 235 240 240 249 291 282 272 263 242 263 258 239 253 219 235 216 210 246 251 251 248 242 250 258 244 240 263 268
254 248 259 260 261 258 251 244 238 238 233 233 234 233 234 236 236 262 279 276 268 253 257 252 271 240 264 235 233 227 210 229 234 239 246 244 242 240 238 237 236 229 222
247 254 250 240 239 239 241 238 242 233 233 237 232 236 232 237 264 274 272 258 249 277 242 264 246 263 228 238 234 227 222 238 233 217 232 236 241 242 242 234 233 230 229
258 246 238 239 235 232 233 234 233 236 236 230 241 262 268 283 271 265 256 252 254 240 260 264 219 255 237 236 242 230 224 219 221 216 228 223 231 231 230 230 228 229 231
261 263 259 248 241 237 235 234 228 242 264 267 267 269 265 265 258 248 255 256 242 247 216 216 224 229 231 240 245 236 226 215 217 214 222 218 217 225 228 225 226 228 229
253 254 254 259 259 254 256 256 267 263 255 258 260 261 254 244 251 243 246 255 231 208 208 204 226 221 227 240 236 239 225 218 216 210 217 218 218 218 222 221 224 226 225
253 256 254 256 253 258 256 260 250 252 251 251 251 243 221 244 248 252 247 240 218 206 210 216 227 228 236 237 238 238 228 218 215 218 216 222 220 218 217 220 221 226 228
248 245 245 247 243 260 248 251 247 246 238 237 239 251 252 234 247 239 254 236 230 232 232 230 237 238 239 242 233 239 237 227 218 216 219 226 221 216 216 219 222 227 228
270 268 265 260 249 248 249 238 238 233 226 225 251 246 243 248 231 269 267 239 226 219 233 238 244 244 242 243 242 235 243 225 216 215 225 221 220 216 216 224 221 230 226
258 257 254 250 248 248 237 234 225 222 222 253 250 238 237 234 222 261 262 257 277 264 258 239 238 239 192 208 251 238 234 220 214 225 210 206 215 211 221 227 233 236 233

GFSMW_2pvu_pres_066.txt.gz
Presure
156 159 153 161 151 152 156 154 153 158 160 158 157 151 145 151 146 150 150 151 150 148 155 155 149 150 160 160 162 157 171 171 145 180 166 181 160 184 190 192 195 193 198
142 159 162 155 153 157 160 148 144 152 150 150 149 144 146 151 152 151 147 150 155 156 150 161 155 161 164 158 165 170 153 159 179 163 189 164 181 175 179 200 199 210 234
166 155 159 157 154 160 156 156 155 150 152 158 156 154 151 150 154 157 151 144 147 157 156 152 149 160 163 167 172 180 180 181 171 176 191 175 194 176 191 213 242 247 235
168 164 164 163 162 159 156 128 130 130 149 146 147 155 157 157 156 156 160 160 156 128 159 161 163 168 173 179 183 148 168 171 155 182 193 195 192 207 210 221 237 242 244
178 168 168 166 161 161 163 161 130 125 129 126 151 155 156 156 157 157 160 160 163 173 176 156 173 148 168 168 171 153 166 177 189 183 193 189 207 210 227 254 256 277 291
166 176 185 171 171 166 165 167 166 162 160 161 159 159 159 160 161 163 171 173 166 172 171 185 178 169 190 177 172 181 177 186 188 198 203 213 219 257 270 311 295 280 274
181 177 173 180 182 175 176 173 174 173 172 170 169 170 172 176 178 170 176 178 165 180 179 161 180 178 176 175 185 185 189 193 203 211 216 245 256 300 282 295 292 271 252
182 183 180 176 172 176 174 179 175 173 179 179 178 177 175 174 179 176 174 185 150 162 164 171 170 176 174 185 186 190 93 205 211 216 258 255 294 283 283 296 273 303 234
191 186 185 181 178 177 165 155 161 155 153 175 162 170 173 173 177 160 162 175 168 172 170 179 172 189 179 190 194 202 206 209 221 255 272 276 279 280 272 266 251 403 373
189 192 189 189 189 186 183 180 179 178 178 179 181 181 174 168 172 170 178 184 171 184 176 189 184 190 198 202 191 193 241 242 249 295 271 268 274 263 254 273 401 374 359
250 198 196 188 187 189 190 188 182 179 179 180 181 184 185 184 183 177 184 186 184 192 194 183 188 202 192 201 232 249 251 245 290 280 278 274 256 244 250 238 381 373 342
253 252 221 199 196 192 188 188 189 187 181 178 176 179 177 183 188 186 189 193 190 199 179 200 202 205 266 253 245 250 246 299 273 279 278 252 242 270 265 283 344 380 369
248 249 246 257 251 205 200 197 192 189 190 190 190 187 186 188 190 192 198 194 193 198 202 203 242 263 243 249 245 254 292 272 258 274 253 241 247 228 266 262 270 340 356
274 207 191 245 255 259 251 222 210 206 203 201 201 199 198 193 191 191 195 195 235 250 258 258 244 236 243 245 252 290 271 251 270 252 245 245 223 206 265 253 255 264 315
281 280 270 242 241 246 253 252 247 238 229 227 229 222 216 226 234 233 262 266 252 257 243 246 246 241 247 262 282 268 254 268 255 242 223 238 220 230 239 258 262 251 260
278 274 277 280 277 276 274 270 256 251 248 245 239 239 236 227 233 219 246 252 254 247 240 243 238 238 288 280 263 260 255 247 253 237 246 225 250 238 230 238 243 241 250
276 282 280 272 264 261 260 257 254 245 284 259 261 250 272 256 262 251 248 246 241 238 239 240 250 259 277 261 247 250 261 265 232 241 234 231 228 221 217 232 234 242 241
274 267 267 263 260 262 265 264 260 261 272 277 262 256 259 253 242 242 243 240 239 242 240 270 279 275 257 257 249 265 286 219 230 239 246 234 230 221 217 217 226 229 237
309 273 264 259 257 271 263 277 268 266 254 260 253 251 240 244 240 238 243 251 247 278 280 271 264 260 256 243 253 270 227 240 232 245 245 236 225 221 217 217 226 228 226
273 273 280 262 273 252 248 242 241 248 249 234 237 238 239 235 237 241 237 277 281 272 275 254 252 255 247 244 221 204 227 228 232 240 240 245 231 223 220 223 217 227 224
262 265 272 268 279 270 247 247 242 243 232 240 233 232 238 243 234 264 272 273 267 254 258 252 244 251 239 221 207 201 223 225 234 238 237 238 240 228 224 220 224 228 221
269 260 265 267 271 273 258 240 235 235 245 241 235 235 249 264 256 263 263 260 257 246 249 257 246 244 228 211 210 216 235 233 238 242 238 238 240 238 227 214 226 224 215
269 263 258 258 252 250 256 254 252 251 248 245 247 262 250 254 252 252 246 267 249 238 246 239 247 237 230 227 231 228 240 241 241 196 244 237 238 243 226 208 226 204 209
244 255 259 249 248 240 243 238 233 240 247 249 247 248 247 247 241 234 262 248 239 235 236 286 323 254 231 223 223 238 238 238 237 197 202 194 209 204 230 229 203 217 242
245 251 255 250 250 245 250 248 241 244 237 245 247 242 239 237 224 255 257 238 231 228 226 264 264 280 275 216 259 251 245 243 242 231 237 240 230 206 208 236 247 237 226
266 261 253 248 244 249 243 238 237 256 246 246 239 236 227 226 242 253 244 228 245 254 256 256 255 256 256 267 268 262 258 259 263 259 251 247 242 247 240 235 232 227 225

GFSMW_2pvu_pres_069.txt.gz
Presure
163 169 160 160 157 149 157 157 150 150 146 144 143 143 142 141 143 154 155 144 149 152 154 150 141 159 151 158 153 152 160 148 156 171 179 180 175 143 165 164 168 180 183
140 174 157 153 148 156 159 158 158 155 155 157 155 153 154 152 151 153 151 142 148 146 150 161 153 159 156 157 157 159 158 167 174 169 187 168 167 171 160 178 190 191 204
179 171 161 151 159 152 148 150 159 161 160 160 154 152 151 154 152 151 153 154 154 151 148 149 146 148 157 137 155 151 160 173 176 184 184 177 173 174 176 187 193 203 210
181 183 173 160 158 163 158 156 155 152 151 151 150 148 148 150 149 149 150 155 142 142 147 145 148 151 146 148 160 172 171 179 177 174 158 187 185 195 187 193 212 207 248
166 181 184 170 167 170 152 159 137 151 151 134 155 159 161 151 156 158 148 140 145 148 141 150 142 151 162 165 169 180 176 162 174 162 183 176 191 191 207 213 215 260 293
183 171 178 183 178 173 170 168 166 165 163 159 161 160 126 127 132 127 134 143 158 159 162 160 145 162 171 177 175 165 168 159 171 176 182 195 201 208 213 247 263 302 291
151 143 172 171 185 185 173 171 169 165 161 161 161 160 158 151 152 156 158 161 167 168 169 168 170 156 179 177 155 159 165 175 188 188 197 204 218 225 222 265 297 284 289
168 160 140 141 173 174 182 178 171 162 162 167 168 165 163 165 165 164 166 167 169 171 172 166 179 179 178 189 164 184 187 187 190 203 193 211 246 212 257 282 278 285 270
197 180 174 146 178 178 176 175 180 182 181 176 173 174 174 173 173 173 173 174 177 177 178 180 181 183 180 187 188 184 189 173 197 201 205 216 240 257 266 275 279 270 258
214 189 183 182 179 181 183 182 180 180 179 175 172 171 171 171 175 177 178 174 172 165 179 182 182 184 182 180 189 191 191 203 195 201 240 248 255 259 279 258 267 253 247
251 264 219 181 181 180 182 184 186 185 181 181 182 181 181 179 179 180 179 184 183 180 180 179 174 166 191 183 184 202 191 193 230 253 241 253 255 281 258 273 252 240 235
253 244 249 257 193 186 182 186 185 183 186 187 187 187 188 187 188 188 187 188 189 186 184 190 191 156 181 199 201 190 204 248 247 253 248 256 284 263 269 256 241 230 221
247 243 243 245 250 251 247 218 192 188 189 189 189 188 189 190 165 184 185 188 188 185 190 196 195 199 201 206 206 256 255 239 248 242 253 269 266 250 261 250 237 230 221
233 234 239 245 247 240 240 234 246 254 251 226 214 202 199 194 194 195 193 193 190 195 200 202 207 210 221 239 239 262 249 244 243 249 281 267 253 268 260 244 234 234 233
246 245 236 237 233 235 228 243 244 248 246 235 234 240 244 240 244 246 247 243 242 222 223 239 245 240 256 253 253 250 245 244 247 280 262 269 257 262 245 230 245 237 235
335 301 324 303 262 248 247 246 246 242 242 282 268 262 243 241 234 236 235 244 265 254 253 241 269 262 254 247 245 241 243 261 269 260 253 246 271 256 233 235 245 246 236
293 298 309 282 283 286 291 289 291 278 271 268 265 262 259 249 275 266 266 249 270 251 258 264 255 248 245 242 245 252 283 271 262 259 253 264 238 235 232 237 243 245 240
313 296 298 287 276 278 279 279 280 290 294 291 286 282 268 255 246 260 262 244 255 263 253 242 247 241 241 246 277 273 267 253 253 253 248 239 223 226 230 234 241 239 244
275 284 289 278 279 279 281 278 278 274 272 274 279 268 261 257 246 265 255 252 250 239 241 242 239 245 281 282 271 257 257 243 252 249 230 214 203 218 229 234 237 237 240
289 312 281 265 270 264 281 277 265 247 243 273 277 279 264 252 245 251 237 236 240 247 241 241 256 275 272 257 251 254 251 248 248 231 214 207 209 235 235 237 244 246 235
271 272 287 298 269 282 267 261 253 264 256 245 250 261 238 244 250 239 233 233 232 239 255 265 265 258 254 253 244 256 251 245 241 228 212 223 227 236 238 239 230 205 197
262 262 262 267 267 269 269 271 277 271 273 259 248 249 248 237 247 239 243 249 252 267 262 257 248 263 251 246 240 280 265 260 236 229 225 220 232 236 236 238 239 230 242
267 277 280 261 260 259 266 263 273 265 262 262 262 248 248 229 236 249 239 248 254 256 256 245 265 247 244 239 230 290 296 299 250 227 218 248 249 232 242 250 254 253 248
256 250 258 276 275 269 268 263 260 266 256 249 249 249 248 246 235 235 251 245 249 247 238 261 248 238 234 230 269 227 264 268 270 264 259 257 258 257 254 258 256 251 246
255 254 252 243 259 258 258 259 253 244 241 239 238 233 230 241 244 241 245 244 241 229 245 242 236 236 254 254 262 262 256 251 252 256 259 254 193 256 256 241 242 240 234
267 261 260 244 243 251 251 252 246 244 238 235 238 241 237 235 232 245 242 239 222 240 240 242 257 250 253 257 258 258 256 255 253 249 243 232 239 237 235 226 219 227 227